Wetterdaten: Samstag, 05.08.2017
Datum Zeit Temp. Aussen Temp. o. S. +5cm Feuchte Auss BlattFeu 1 Luftdruck Regen Sonnenschein Regendauer Solar Windben Empfang
05.08.2017 00:00 17,4 C 16,7 C 15,0 C 79 % 0 lf 1013,2 hPa 0,0 l/m 0 min 0 min 0 W/m 6,3 km/h (2 Bft) 97,87 %
05.08.2017 00:02 17,4 C 16,7 C 15,0 C 79 % 0 lf 1013,2 hPa 0,0 l/m 0 min 0 min 0 W/m 6,3 km/h (2 Bft) 94,74 %
05.08.2017 00:04 17,4 C 16,7 C 15,0 C 79 % 0 lf 1013,2 hPa 0,0 l/m 0 min 0 min 0 W/m 6,3 km/h (2 Bft) 97,87 %
05.08.2017 00:08 17,4 C 16,7 C 15,0 C 79 % 0 lf 1013,3 hPa 0,0 l/m 0 min 0 min 0 W/m 8,4 km/h (2 Bft) 98,00 %
05.08.2017 00:10 17,3 C 16,7 C 15,0 C 79 % 0 lf 1013,3 hPa 0,0 l/m 0 min 0 min 0 W/m 6,3 km/h (2 Bft) 95,74 %
05.08.2017 00:12 17,3 C 16,7 C 15,0 C 79 % 0 lf 1013,3 hPa 0,0 l/m 0 min 0 min 0 W/m 8,4 km/h (2 Bft) 97,87 %
05.08.2017 00:14 17,3 C 17,2 C 15,6 C 79 % 0 lf 1013,3 hPa 0,0 l/m 0 min 0 min 0 W/m 10,5 km/h (2 Bft) 97,83 %
05.08.2017 00:16 17,3 C 17,2 C 15,6 C 79 % 0 lf 1013,3 hPa 0,0 l/m 0 min 0 min 0 W/m 6,3 km/h (2 Bft) 95,74 %
05.08.2017 00:18 17,3 C 17,2 C 15,6 C 79 % 0 lf 1013,2 hPa 0,0 l/m 0 min 0 min 0 W/m 8,4 km/h (2 Bft) 97,87 %
05.08.2017 00:20 17,3 C 17,2 C 15,6 C 79 % 0 lf 1013,3 hPa 0,0 l/m 0 min 0 min 0 W/m 6,3 km/h (2 Bft) 97,87 %
05.08.2017 00:22 17,2 C 16,7 C 15,0 C 79 % 0 lf 1013,3 hPa 0,0 l/m 0 min 0 min 0 W/m 8,4 km/h (2 Bft) 97,87 %
05.08.2017 00:24 17,2 C 16,7 C 15,0 C 79 % 0 lf 1013,3 hPa 0,0 l/m 0 min 0 min 0 W/m 8,4 km/h (2 Bft) 97,87 %
05.08.2017 00:26 17,2 C 16,7 C 15,0 C 79 % 0 lf 1013,4 hPa 0,0 l/m 0 min 0 min 0 W/m 8,4 km/h (2 Bft) 100,00 %
05.08.2017 00:28 17,2 C 16,7 C 15,0 C 79 % 0 lf 1013,3 hPa 0,0 l/m 0 min 0 min 0 W/m 8,4 km/h (2 Bft) 95,74 %
05.08.2017 00:30 17,2 C 16,7 C 15,0 C 79 % 0 lf 1013,4 hPa 0,0 l/m 0 min 0 min 0 W/m 6,3 km/h (2 Bft) 100,00 %
05.08.2017 00:32 17,2 C 16,7 C 15,0 C 79 % 0 lf 1013,3 hPa 0,0 l/m 0 min 0 min 0 W/m 4,2 km/h (1 Bft) 97,87 %
05.08.2017 00:34 17,2 C 16,7 C 15,0 C 79 % 0 lf 1013,3 hPa 0,0 l/m 0 min 0 min 0 W/m 4,2 km/h (1 Bft) 93,62 %
05.08.2017 00:36 17,2 C 16,7 C 15,0 C 79 % 0 lf 1013,3 hPa 0,0 l/m 0 min 0 min 0 W/m 4,2 km/h (1 Bft) 97,87 %
05.08.2017 00:38 17,2 C 16,7 C 14,4 C 79 % 0 lf 1013,3 hPa 0,0 l/m 0 min 0 min 0 W/m 6,3 km/h (2 Bft) 97,83 %
05.08.2017 00:40 17,2 C 16,7 C 14,4 C 79 % 0 lf 1013,3 hPa 0,0 l/m 0 min 0 min 0 W/m 6,3 km/h (2 Bft) 93,62 %
05.08.2017 00:42 17,2 C 16,1 C 14,4 C 79 % 0 lf 1013,3 hPa 0,0 l/m 0 min 0 min 0 W/m 4,2 km/h (1 Bft) 100,00 %
05.08.2017 00:44 17,2 C 16,1 C 14,4 C 79 % 0 lf 1013,3 hPa 0,0 l/m 0 min 0 min 0 W/m 4,2 km/h (1 Bft) 100,00 %
05.08.2017 00:46 17,2 C 16,1 C 13,9 C 79 % 0 lf 1013,2 hPa 0,0 l/m 0 min 0 min 0 W/m 0,0 km/h (0 Bft) 97,87 %
05.08.2017 00:48 17,1 C 16,1 C 13,9 C 79 % 0 lf 1013,2 hPa 0,0 l/m 0 min 0 min 0 W/m 4,2 km/h (1 Bft) 100,00 %
05.08.2017 00:50 17,1 C 16,1 C 13,9 C 79 % 0 lf 1013,1 hPa 0,0 l/m 0 min 0 min 0 W/m 2,1 km/h (1 Bft) 93,62 %
05.08.2017 00:52 17,1 C 15,6 C 13,9 C 79 % 0 lf 1013,1 hPa 0,0 l/m 0 min 0 min 0 W/m 2,1 km/h (1 Bft) 97,37 %
05.08.2017 00:54 17,1 C 15,6 C 13,9 C 79 % 0 lf 1013,2 hPa 0,0 l/m 0 min 0 min 0 W/m 0,0 km/h (0 Bft) 97,87 %
05.08.2017 00:56 17,1 C 15,0 C 13,9 C 79 % 0 lf 1013,2 hPa 0,0 l/m 0 min 0 min 0 W/m 0,0 km/h (0 Bft) 100,00 %
05.08.2017 00:58 17,1 C 15,0 C 13,3 C 79 % 0 lf 1013,2 hPa 0,0 l/m 0 min 0 min 0 W/m 2,1 km/h (1 Bft) 100,00 %
05.08.2017 01:00 17,0 C 15,0 C 13,3 C 79 % 0 lf 1013,2 hPa 0,0 l/m 0 min 0 min 0 W/m 4,2 km/h (1 Bft) 100,00 %
05.08.2017 01:02 17,0 C 15,6 C 13,3 C 79 % 0 lf 1013,2 hPa 0,0 l/m 0 min 0 min 0 W/m 4,2 km/h (1 Bft) 100,00 %
05.08.2017 01:04 16,9 C 15,0 C 13,3 C 79 % 0 lf 1013,3 hPa 0,0 l/m 0 min 0 min 0 W/m 4,2 km/h (1 Bft) 100,00 %
05.08.2017 01:06 16,9 C 15,0 C 13,3 C 79 % 0 lf 1013,3 hPa 0,0 l/m 0 min 0 min 0 W/m 4,2 km/h (1 Bft) 97,87 %
05.08.2017 01:08 16,9 C 15,0 C 13,3 C 79 % 0 lf 1013,3 hPa 0,0 l/m 0 min 0 min 0 W/m 4,2 km/h (1 Bft) 97,87 %
05.08.2017 01:10 16,9 C 15,0 C 13,3 C 80 % 0 lf 1013,2 hPa 0,0 l/m 0 min 0 min 0 W/m 4,2 km/h (1 Bft) 100,00 %
05.08.2017 01:12 16,8 C 15,0 C 13,3 C 79 % 0 lf 1013,3 hPa 0,0 l/m 0 min 0 min 0 W/m 4,2 km/h (1 Bft) 100,00 %
05.08.2017 01:14 16,8 C 15,0 C 13,3 C 80 % 0 lf 1013,3 hPa 0,0 l/m 0 min 0 min 0 W/m 2,1 km/h (1 Bft) 100,00 %
05.08.2017 01:16 16,8 C 14,4 C 13,3 C 80 % 0 lf 1013,3 hPa 0,0 l/m 0 min 0 min 0 W/m 2,1 km/h (1 Bft) 100,00 %
05.08.2017 01:18 16,7 C 14,4 C 13,3 C 80 % 0 lf 1013,5 hPa 0,0 l/m 0 min 0 min 0 W/m 4,2 km/h (1 Bft) 100,00 %
05.08.2017 01:20 16,7 C 14,4 C 12,8 C 80 % 0 lf 1013,5 hPa 0,0 l/m 0 min 0 min 0 W/m 4,2 km/h (1 Bft) 100,00 %
05.08.2017 01:22 16,6 C 14,4 C 12,8 C 80 % 0 lf 1013,5 hPa 0,0 l/m 0 min 0 min 0 W/m 4,2 km/h (1 Bft) 100,00 %
05.08.2017 01:24 16,6 C 14,4 C 12,8 C 80 % 0 lf 1013,5 hPa 0,0 l/m 0 min 0 min 0 W/m 2,1 km/h (1 Bft) 97,87 %
05.08.2017 01:26 16,6 C 14,4 C 12,8 C 80 % 0 lf 1013,4 hPa 0,0 l/m 0 min 0 min 0 W/m 2,1 km/h (1 Bft) 97,83 %
05.08.2017 01:28 16,5 C 14,4 C 12,8 C 81 % 0 lf 1013,3 hPa 0,0 l/m 0 min 0 min 0 W/m 0,0 km/h (0 Bft) 100,00 %
05.08.2017 01:30 16,4 C 14,4 C 12,8 C 81 % 0 lf 1013,3 hPa 0,0 l/m 0 min 0 min 0 W/m 0,0 km/h (0 Bft) 97,87 %
05.08.2017 01:32 16,4 C 14,4 C 12,8 C 81 % 0 lf 1013,3 hPa 0,0 l/m 0 min 0 min 0 W/m 0,0 km/h (0 Bft) 97,87 %
05.08.2017 01:34 16,4 C 14,4 C 12,8 C 81 % 0 lf 1013,1 hPa 0,0 l/m 0 min 0 min 0 W/m 2,1 km/h (1 Bft) 100,00 %
05.08.2017 01:36 16,3 C 14,4 C 12,8 C 81 % 0 lf 1013,0 hPa 0,0 l/m 0 min 0 min 0 W/m 4,2 km/h (1 Bft) 100,00 %
05.08.2017 01:38 16,3 C 14,4 C 12,8 C 82 % 0 lf 1013,0 hPa 0,0 l/m 0 min 0 min 0 W/m 0,0 km/h (0 Bft) 97,83 %
05.08.2017 01:40 16,3 C 14,4 C 12,8 C 82 % 0 lf 1013,1 hPa 0,0 l/m 0 min 0 min 0 W/m 2,1 km/h (1 Bft) 97,87 %
05.08.2017 01:42 16,2 C 14,4 C 12,8 C 82 % 0 lf 1013,1 hPa 0,0 l/m 0 min 0 min 0 W/m 0,0 km/h (0 Bft) 97,87 %
05.08.2017 01:44 16,2 C 14,4 C 12,8 C 82 % 0 lf 1013,1 hPa 0,0 l/m 0 min 0 min 0 W/m 0,0 km/h (0 Bft) 97,87 %
05.08.2017 01:46 16,2 C 14,4 C 12,8 C 82 % 0 lf 1013,1 hPa 0,0 l/m 0 min 0 min 0 W/m 0,0 km/h (0 Bft) 97,87 %
05.08.2017 01:48 16,1 C 14,4 C 12,8 C 83 % 0 lf 1013,1 hPa 0,0 l/m 0 min 0 min 0 W/m 0,0 km/h (0 Bft) 95,74 %
05.08.2017 01:50 16,1 C 14,4 C 12,8 C 83 % 0 lf 1013,0 hPa 0,0 l/m 0 min 0 min 0 W/m 0,0 km/h (0 Bft) 95,65 %
05.08.2017 01:52 16,0 C 14,4 C 12,8 C 83 % 0 lf 1013,0 hPa 0,0 l/m 0 min 0 min 0 W/m 0,0 km/h (0 Bft) 93,62 %
05.08.2017 01:54 16,0 C 14,4 C 12,8 C 83 % 0 lf 1013,0 hPa 0,0 l/m 0 min 0 min 0 W/m 0,0 km/h (0 Bft) 93,62 %
05.08.2017 01:56 15,9 C 14,4 C 12,8 C 83 % 0 lf 1013,0 hPa 0,0 l/m 0 min 0 min 0 W/m 0,0 km/h (0 Bft) 93,62 %
05.08.2017 01:58 15,9 C 13,9 C 12,8 C 83 % 0 lf 1013,0 hPa 0,0 l/m 0 min 0 min 0 W/m 0,0 km/h (0 Bft) 91,49 %
05.08.2017 02:00 15,9 C 13,9 C 12,8 C 83 % 0 lf 1013,0 hPa 0,0 l/m 0 min 0 min 0 W/m 0,0 km/h (0 Bft) 91,49 %
05.08.2017 02:02 15,8 C 13,9 C 12,8 C 83 % 0 lf 1013,0 hPa 0,0 l/m 0 min 0 min 0 W/m 0,0 km/h (0 Bft) 91,30 %
05.08.2017 02:04 15,8 C 13,9 C 12,8 C 83 % 0 lf 1013,0 hPa 0,0 l/m 0 min 0 min 0 W/m 0,0 km/h (0 Bft) 93,62 %
05.08.2017 02:06 15,8 C 13,9 C 12,8 C 83 % 0 lf 1013,2 hPa 0,0 l/m 0 min 0 min 0 W/m 0,0 km/h (0 Bft) 95,74 %
05.08.2017 02:08 15,7 C 13,9 C 12,8 C 84 % 0 lf 1013,2 hPa 0,0 l/m 0 min 0 min 0 W/m 0,0 km/h (0 Bft) 91,49 %
05.08.2017 02:10 15,7 C 13,9 C 12,8 C 84 % 0 lf 1013,1 hPa 0,0 l/m 0 min 0 min 0 W/m 0,0 km/h (0 Bft) 93,62 %
05.08.2017 02:12 15,7 C 13,9 C 12,8 C 84 % 0 lf 1013,0 hPa 0,0 l/m 0 min 0 min 0 W/m 0,0 km/h (0 Bft) 93,62 %
05.08.2017 02:14 15,6 C 13,9 C 12,8 C 84 % 0 lf 1013,0 hPa 0,0 l/m 0 min 0 min 0 W/m 0,0 km/h (0 Bft) 93,48 %
05.08.2017 02:16 15,6 C 13,9 C 12,8 C 84 % 0 lf 1012,9 hPa 0,0 l/m 0 min 0 min 0 W/m 0,0 km/h (0 Bft) 91,49 %
05.08.2017 02:18 15,6 C 13,9 C 12,8 C 84 % 0 lf 1013,0 hPa 0,0 l/m 0 min 0 min 0 W/m 0,0 km/h (0 Bft) 93,62 %
05.08.2017 02:20 15,6 C 14,4 C 12,8 C 84 % 0 lf 1013,0 hPa 0,0 l/m 0 min 0 min 0 W/m 0,0 km/h (0 Bft) 95,74 %
05.08.2017 02:22 15,6 C 14,4 C 13,3 C 85 % 0 lf 1013,0 hPa 0,0 l/m 0 min 0 min 0 W/m 0,0 km/h (0 Bft) 93,62 %
05.08.2017 02:24 15,5 C 14,4 C 13,3 C 85 % 0 lf 1013,0 hPa 0,0 l/m 0 min 0 min 0 W/m 0,0 km/h (0 Bft) 91,49 %
05.08.2017 02:26 15,5 C 14,4 C 13,3 C 85 % 0 lf 1013,1 hPa 0,0 l/m 0 min 0 min 0 W/m 0,0 km/h (0 Bft) 91,84 %
05.08.2017 02:28 15,4 C 14,4 C 13,3 C 85 % 0 lf 1013,0 hPa 0,0 l/m 0 min 0 min 0 W/m 0,0 km/h (0 Bft) 89,36 %
05.08.2017 02:30 15,4 C 14,4 C 13,3 C 86 % 0 lf 1012,9 hPa 0,0 l/m 0 min 0 min 0 W/m 4,2 km/h (1 Bft) 93,48 %
05.08.2017 02:32 15,4 C 15,0 C 13,3 C 86 % 0 lf 1013,0 hPa 0,0 l/m 0 min 0 min 0 W/m 4,2 km/h (1 Bft) 93,62 %
05.08.2017 02:34 15,4 C 15,0 C 13,3 C 87 % 0 lf 1013,0 hPa 0,0 l/m 0 min 0 min 0 W/m 2,1 km/h (1 Bft) 91,49 %
05.08.2017 02:36 15,4 C 15,0 C 13,9 C 87 % 0 lf 1012,9 hPa 0,0 l/m 0 min 0 min 0 W/m 4,2 km/h (1 Bft) 95,74 %
05.08.2017 02:38 15,4 C 15,0 C 13,9 C 87 % 0 lf 1012,9 hPa 0,0 l/m 0 min 0 min 0 W/m 4,2 km/h (1 Bft) 95,74 %
05.08.2017 02:40 15,4 C 15,0 C 13,9 C 87 % 0 lf 1012,9 hPa 0,0 l/m 0 min 0 min 0 W/m 4,2 km/h (1 Bft) 97,87 %
05.08.2017 02:42 15,4 C 15,0 C 13,9 C 88 % 0 lf 1012,8 hPa 0,0 l/m 0 min 0 min 0 W/m 4,2 km/h (1 Bft) 95,65 %
05.08.2017 02:44 15,4 C 15,0 C 13,9 C 88 % 0 lf 1012,9 hPa 0,0 l/m 0 min 0 min 0 W/m 4,2 km/h (1 Bft) 97,87 %
05.08.2017 02:46 15,4 C 15,0 C 13,9 C 88 % 0 lf 1012,9 hPa 0,0 l/m 0 min 0 min 0 W/m 4,2 km/h (1 Bft) 97,87 %
05.08.2017 02:48 15,3 C 15,6 C 13,9 C 88 % 0 lf 1012,8 hPa 0,0 l/m 0 min 0 min 0 W/m 6,3 km/h (2 Bft) 97,87 %
05.08.2017 02:50 15,3 C 15,6 C 14,4 C 88 % 0 lf 1012,9 hPa 0,0 l/m 0 min 0 min 0 W/m 8,4 km/h (2 Bft) 95,74 %
05.08.2017 02:52 15,3 C 15,6 C 14,4 C 88 % 0 lf 1012,9 hPa 0,0 l/m 0 min 0 min 0 W/m 6,3 km/h (2 Bft) 93,62 %
05.08.2017 02:54 15,3 C 15,6 C 14,4 C 88 % 0 lf 1012,9 hPa 0,0 l/m 0 min 0 min 0 W/m 6,3 km/h (2 Bft) 95,65 %
05.08.2017 02:56 15,3 C 15,6 C 14,4 C 88 % 0 lf 1012,9 hPa 0,0 l/m 0 min 0 min 0 W/m 6,3 km/h (2 Bft) 96,30 %
05.08.2017 02:58 15,3 C 15,6 C 14,4 C 89 % 0 lf 1012,9 hPa 0,0 l/m 0 min 0 min 0 W/m 8,4 km/h (2 Bft) 97,83 %
05.08.2017 03:00 15,3 C 15,6 C 14,4 C 89 % 0 lf 1012,9 hPa 0,0 l/m 0 min 0 min 0 W/m 12,6 km/h (3 Bft) 95,74 %
05.08.2017 03:02 15,3 C 15,6 C 14,4 C 89 % 0 lf 1012,9 hPa 0,0 l/m 0 min 0 min 0 W/m 10,5 km/h (2 Bft) 97,87 %
05.08.2017 03:04 15,3 C 15,6 C 14,4 C 89 % 0 lf 1012,9 hPa 0,0 l/m 0 min 0 min 0 W/m 10,5 km/h (2 Bft) 97,87 %
05.08.2017 03:06 15,4 C 15,6 C 15,0 C 89 % 0 lf 1012,9 hPa 0,0 l/m 0 min 0 min 0 W/m 8,4 km/h (2 Bft) 95,74 %
05.08.2017 03:08 15,4 C 16,1 C 15,0 C 89 % 0 lf 1012,9 hPa 0,0 l/m 0 min 0 min 0 W/m 6,3 km/h (2 Bft) 97,87 %
05.08.2017 03:10 15,4 C 16,1 C 15,0 C 89 % 0 lf 1012,9 hPa 0,0 l/m 0 min 0 min 0 W/m 8,4 km/h (2 Bft) 97,83 %
05.08.2017 03:12 15,4 C 16,1 C 15,0 C 89 % 0 lf 1012,9 hPa 0,0 l/m 0 min 0 min 0 W/m 8,4 km/h (2 Bft) 97,87 %
05.08.2017 03:14 15,4 C 16,1 C 15,0 C 89 % 0 lf 1012,9 hPa 0,0 l/m 0 min 0 min 0 W/m 8,4 km/h (2 Bft) 97,87 %
05.08.2017 03:16 15,4 C 16,1 C 15,0 C 89 % 0 lf 1012,8 hPa 0,0 l/m 0 min 0 min 0 W/m 6,3 km/h (2 Bft) 95,74 %
05.08.2017 03:18 15,4 C 16,1 C 15,0 C 89 % 0 lf 1012,9 hPa 0,0 l/m 0 min 0 min 0 W/m 10,5 km/h (2 Bft) 95,74 %
05.08.2017 03:20 15,5 C 16,1 C 15,0 C 89 % 0 lf 1012,9 hPa 0,0 l/m 0 min 0 min 0 W/m 8,4 km/h (2 Bft) 97,83 %
05.08.2017 03:22 15,5 C 16,1 C 15,0 C 89 % 0 lf 1012,9 hPa 0,0 l/m 0 min 0 min 0 W/m 6,3 km/h (2 Bft) 100,00 %
05.08.2017 03:24 15,6 C 16,1 C 15,0 C 89 % 0 lf 1012,9 hPa 0,0 l/m 0 min 0 min 0 W/m 6,3 km/h (2 Bft) 97,87 %
05.08.2017 03:26 15,6 C 16,1 C 15,0 C 89 % 0 lf 1013,0 hPa 0,0 l/m 0 min 0 min 0 W/m 6,3 km/h (2 Bft) 97,87 %
05.08.2017 03:28 15,6 C 16,1 C 15,0 C 89 % 0 lf 1012,9 hPa 0,0 l/m 0 min 0 min 0 W/m 8,4 km/h (2 Bft) 100,00 %
05.08.2017 03:30 15,6 C 16,1 C 15,0 C 89 % 0 lf 1013,0 hPa 0,0 l/m 0 min 0 min 0 W/m 4,2 km/h (1 Bft) 97,87 %
05.08.2017 03:32 15,6 C 16,7 C 15,0 C 89 % 2 lf 1013,0 hPa 0,0 l/m 0 min 0 min 0 W/m 4,2 km/h (1 Bft) 100,00 %
05.08.2017 03:34 15,7 C 16,1 C 15,0 C 89 % 7 lf 1013,1 hPa 0,0 l/m 0 min 2 min 0 W/m 6,3 km/h (2 Bft) 100,00 %
05.08.2017 03:36 15,7 C 16,1 C 15,0 C 89 % 15 lf 1013,2 hPa 0,0 l/m 0 min 2 min 0 W/m 8,4 km/h (2 Bft) 95,74 %
05.08.2017 03:38 15,7 C 15,6 C 14,4 C 89 % 15 lf 1013,2 hPa 0,0 l/m 0 min 2 min 0 W/m 8,4 km/h (2 Bft) 100,00 %
05.08.2017 03:40 15,8 C 15,6 C 14,4 C 89 % 15 lf 1013,3 hPa 0,0 l/m 0 min 2 min 0 W/m 10,5 km/h (2 Bft) 100,00 %
05.08.2017 03:42 15,8 C 15,6 C 14,4 C 89 % 15 lf 1013,3 hPa 0,0 l/m 0 min 2 min 0 W/m 10,5 km/h (2 Bft) 91,49 %
05.08.2017 03:44 15,9 C 15,6 C 14,4 C 89 % 15 lf 1013,3 hPa 0,0 l/m 0 min 2 min 0 W/m 14,6 km/h (3 Bft) 100,00 %
05.08.2017 03:46 15,9 C 15,6 C 14,4 C 89 % 15 lf 1013,3 hPa 0,0 l/m 0 min 2 min 0 W/m 10,5 km/h (2 Bft) 97,87 %
05.08.2017 03:48 15,9 C 15,6 C 14,4 C 89 % 15 lf 1013,3 hPa 0,0 l/m 0 min 2 min 0 W/m 10,5 km/h (2 Bft) 97,87 %
05.08.2017 03:50 16,0 C 15,0 C 13,9 C 89 % 15 lf 1013,3 hPa 0,0 l/m 0 min 2 min 0 W/m 10,5 km/h (2 Bft) 97,37 %
05.08.2017 03:52 16,0 C 15,0 C 13,9 C 89 % 15 lf 1013,3 hPa 0,0 l/m 0 min 2 min 0 W/m 10,5 km/h (2 Bft) 100,00 %
05.08.2017 03:54 16,1 C 15,0 C 13,9 C 89 % 15 lf 1013,3 hPa 0,2 l/m 0 min 2 min 0 W/m 10,5 km/h (2 Bft) 97,87 %
05.08.2017 03:56 16,1 C 15,0 C 13,9 C 89 % 15 lf 1013,3 hPa 0,0 l/m 0 min 2 min 0 W/m 8,4 km/h (2 Bft) 97,87 %
05.08.2017 03:58 16,1 C 14,4 C 13,9 C 89 % 15 lf 1013,3 hPa 0,0 l/m 0 min 2 min 0 W/m 12,6 km/h (3 Bft) 95,65 %
05.08.2017 04:00 16,1 C 14,4 C 13,9 C 89 % 15 lf 1013,3 hPa 0,0 l/m 0 min 2 min 0 W/m 8,4 km/h (2 Bft) 95,74 %
05.08.2017 04:05 16,2 C 14,4 C 13,9 C 89 % 15 lf 1013,3 hPa 0,2 l/m 0 min 5 min 0 W/m 10,5 km/h (2 Bft) 94,67 %
05.08.2017 04:06 16,2 C 14,4 C 13,9 C 89 % 15 lf 1013,3 hPa 0,0 l/m 0 min 1 min 0 W/m 10,5 km/h (2 Bft) 91,67 %
05.08.2017 04:08 16,2 C 14,4 C 13,9 C 89 % 15 lf 1013,2 hPa 0,0 l/m 0 min 2 min 0 W/m 12,6 km/h (3 Bft) 97,87 %
05.08.2017 04:10 16,2 C 14,4 C 13,9 C 89 % 15 lf 1013,3 hPa 0,0 l/m 0 min 2 min 0 W/m 10,5 km/h (2 Bft) 95,65 %
05.08.2017 04:12 16,2 C 14,4 C 13,9 C 90 % 15 lf 1013,4 hPa 0,0 l/m 0 min 2 min 0 W/m 10,5 km/h (2 Bft) 97,87 %
05.08.2017 04:14 16,2 C 14,4 C 13,9 C 90 % 15 lf 1013,3 hPa 0,0 l/m 0 min 2 min 0 W/m 8,4 km/h (2 Bft) 95,74 %
05.08.2017 04:16 16,2 C 14,4 C 13,9 C 90 % 15 lf 1013,2 hPa 0,0 l/m 0 min 2 min 0 W/m 8,4 km/h (2 Bft) 95,74 %
05.08.2017 04:18 16,2 C 14,4 C 13,9 C 90 % 15 lf 1013,2 hPa 0,2 l/m 0 min 0 min 0 W/m 8,4 km/h (2 Bft) 100,00 %
05.08.2017 04:20 16,2 C 14,4 C 13,9 C 90 % 15 lf 1013,2 hPa 0,0 l/m 0 min 0 min 0 W/m 8,4 km/h (2 Bft) 97,87 %
05.08.2017 04:22 16,2 C 14,4 C 13,9 C 90 % 15 lf 1013,1 hPa 0,0 l/m 0 min 0 min 0 W/m 8,4 km/h (2 Bft) 100,00 %
05.08.2017 04:24 16,2 C 14,4 C 13,9 C 90 % 15 lf 1013,1 hPa 0,0 l/m 0 min 0 min 0 W/m 6,3 km/h (2 Bft) 100,00 %
05.08.2017 04:26 16,1 C 14,4 C 13,9 C 90 % 15 lf 1013,0 hPa 0,0 l/m 0 min 0 min 0 W/m 4,2 km/h (1 Bft) 97,87 %
05.08.2017 04:28 16,1 C 14,4 C 13,9 C 90 % 15 lf 1013,1 hPa 0,0 l/m 0 min 2 min 0 W/m 4,2 km/h (1 Bft) 97,87 %
05.08.2017 04:30 16,1 C 14,4 C 13,9 C 90 % 15 lf 1013,2 hPa 0,0 l/m 0 min 2 min 0 W/m 4,2 km/h (1 Bft) 100,00 %
05.08.2017 04:32 16,1 C 14,4 C 13,9 C 90 % 15 lf 1013,2 hPa 0,0 l/m 0 min 2 min 0 W/m 4,2 km/h (1 Bft) 97,87 %
05.08.2017 04:34 16,1 C 14,4 C 13,9 C 90 % 15 lf 1013,2 hPa 0,0 l/m 0 min 2 min 0 W/m 4,2 km/h (1 Bft) 97,83 %
05.08.2017 04:36 16,1 C 14,4 C 13,9 C 90 % 15 lf 1013,2 hPa 0,2 l/m 0 min 2 min 0 W/m 4,2 km/h (1 Bft) 97,87 %
05.08.2017 04:38 16,1 C 14,4 C 13,9 C 91 % 15 lf 1013,2 hPa 0,0 l/m 0 min 2 min 0 W/m 6,3 km/h (2 Bft) 97,87 %
05.08.2017 04:40 16,1 C 14,4 C 13,9 C 91 % 15 lf 1013,2 hPa 0,0 l/m 0 min 2 min 0 W/m 4,2 km/h (1 Bft) 95,74 %
05.08.2017 04:42 16,0 C 14,4 C 13,9 C 91 % 15 lf 1013,2 hPa 0,0 l/m 0 min 2 min 0 W/m 4,2 km/h (1 Bft) 93,62 %
05.08.2017 04:44 16,0 C 14,4 C 13,9 C 91 % 15 lf 1013,2 hPa 0,0 l/m 0 min 2 min 0 W/m 4,2 km/h (1 Bft) 93,62 %
05.08.2017 04:46 16,0 C 14,4 C 13,9 C 91 % 15 lf 1013,1 hPa 0,2 l/m 0 min 2 min 0 W/m 2,1 km/h (1 Bft) 91,30 %
05.08.2017 04:48 16,0 C 14,4 C 13,9 C 91 % 15 lf 1013,0 hPa 0,0 l/m 0 min 2 min 0 W/m 4,2 km/h (1 Bft) 93,62 %
05.08.2017 04:50 16,0 C 14,4 C 13,9 C 91 % 15 lf 1013,1 hPa 0,0 l/m 0 min 2 min 0 W/m 6,3 km/h (2 Bft) 95,74 %
05.08.2017 04:52 15,9 C 14,4 C 13,9 C 91 % 15 lf 1013,1 hPa 0,2 l/m 0 min 2 min 0 W/m 8,4 km/h (2 Bft) 95,74 %
05.08.2017 04:54 15,9 C 14,4 C 13,9 C 91 % 15 lf 1013,1 hPa 0,0 l/m 0 min 2 min 0 W/m 6,3 km/h (2 Bft) 95,74 %
05.08.2017 04:56 15,9 C 14,4 C 13,9 C 91 % 15 lf 1013,1 hPa 0,0 l/m 0 min 2 min 0 W/m 8,4 km/h (2 Bft) 95,74 %
05.08.2017 04:58 15,9 C 14,4 C 13,9 C 91 % 15 lf 1013,0 hPa 0,0 l/m 0 min 0 min 0 W/m 6,3 km/h (2 Bft) 95,65 %
05.08.2017 05:00 15,9 C 14,4 C 13,9 C 92 % 15 lf 1013,0 hPa 0,0 l/m 0 min 0 min 0 W/m 4,2 km/h (1 Bft) 95,74 %
05.08.2017 05:02 15,9 C 14,4 C 13,9 C 92 % 15 lf 1013,0 hPa 0,0 l/m 0 min 0 min 0 W/m 6,3 km/h (2 Bft) 91,49 %
05.08.2017 05:04 15,8 C 14,4 C 13,9 C 92 % 15 lf 1013,0 hPa 0,0 l/m 0 min 0 min 0 W/m 6,3 km/h (2 Bft) 95,74 %
05.08.2017 05:06 15,8 C 14,4 C 13,9 C 92 % 15 lf 1012,9 hPa 0,0 l/m 0 min 0 min 0 W/m 4,2 km/h (1 Bft) 93,62 %
05.08.2017 05:08 15,8 C 14,4 C 13,9 C 92 % 15 lf 1012,8 hPa 0,0 l/m 0 min 0 min 0 W/m 4,2 km/h (1 Bft) 95,65 %
05.08.2017 05:10 15,8 C 14,4 C 13,9 C 92 % 15 lf 1012,9 hPa 0,0 l/m 0 min 0 min 0 W/m 6,3 km/h (2 Bft) 95,74 %
05.08.2017 05:12 15,8 C 14,4 C 13,9 C 92 % 15 lf 1012,8 hPa 0,0 l/m 0 min 0 min 0 W/m 6,3 km/h (2 Bft) 95,74 %
05.08.2017 05:14 15,8 C 14,4 C 13,9 C 92 % 15 lf 1012,8 hPa 0,0 l/m 0 min 0 min 0 W/m 4,2 km/h (1 Bft) 95,74 %
05.08.2017 05:16 15,7 C 14,4 C 13,9 C 92 % 15 lf 1012,8 hPa 0,0 l/m 0 min 0 min 0 W/m 4,2 km/h (1 Bft) 91,49 %
05.08.2017 05:18 15,7 C 14,4 C 13,9 C 92 % 15 lf 1012,7 hPa 0,0 l/m 0 min 0 min 0 W/m 4,2 km/h (1 Bft) 95,74 %
05.08.2017 05:20 15,7 C 14,4 C 13,9 C 92 % 15 lf 1012,7 hPa 0,0 l/m 0 min 0 min 0 W/m 2,1 km/h (1 Bft) 95,65 %
05.08.2017 05:23 15,7 C 14,4 C 13,9 C 93 % 15 lf 1012,6 hPa 0,0 l/m 0 min 0 min 0 W/m 4,2 km/h (1 Bft) 96,34 %
05.08.2017 05:24 15,7 C 14,4 C 13,9 C 93 % 15 lf 1012,6 hPa 0,0 l/m 0 min 0 min 0 W/m 0,0 km/h (0 Bft) 100,00 %
05.08.2017 05:26 15,7 C 14,4 C 13,9 C 92 % 15 lf 1012,4 hPa 0,0 l/m 0 min 0 min 0 W/m 0,0 km/h (0 Bft) 97,87 %
05.08.2017 05:28 15,7 C 14,4 C 13,9 C 92 % 15 lf 1012,5 hPa 0,0 l/m 0 min 0 min 0 W/m 0,0 km/h (0 Bft) 93,62 %
05.08.2017 05:30 15,6 C 14,4 C 13,9 C 92 % 15 lf 1012,4 hPa 0,0 l/m 0 min 0 min 0 W/m 0,0 km/h (0 Bft) 95,74 %
05.08.2017 05:32 15,6 C 14,4 C 13,9 C 93 % 15 lf 1012,4 hPa 0,0 l/m 0 min 0 min 0 W/m 0,0 km/h (0 Bft) 95,65 %
05.08.2017 05:34 15,6 C 14,4 C 13,9 C 93 % 15 lf 1012,5 hPa 0,0 l/m 0 min 0 min 0 W/m 0,0 km/h (0 Bft) 95,74 %
05.08.2017 05:36 15,6 C 14,4 C 13,9 C 93 % 15 lf 1012,5 hPa 0,0 l/m 0 min 0 min 0 W/m 0,0 km/h (0 Bft) 97,87 %
05.08.2017 05:38 15,6 C 14,4 C 13,9 C 93 % 15 lf 1012,5 hPa 0,0 l/m 0 min 0 min 0 W/m 0,0 km/h (0 Bft) 95,74 %
05.08.2017 05:40 15,6 C 14,4 C 13,9 C 93 % 15 lf 1012,5 hPa 0,0 l/m 0 min 0 min 0 W/m 0,0 km/h (0 Bft) 100,00 %
05.08.2017 05:42 15,6 C 14,4 C 13,9 C 93 % 15 lf 1012,4 hPa 0,0 l/m 0 min 0 min 0 W/m 0,0 km/h (0 Bft) 95,74 %
05.08.2017 05:44 15,6 C 14,4 C 13,9 C 93 % 15 lf 1012,4 hPa 0,0 l/m 0 min 0 min 0 W/m 0,0 km/h (0 Bft) 97,83 %
05.08.2017 05:46 15,5 C 14,4 C 13,9 C 93 % 15 lf 1012,5 hPa 0,0 l/m 0 min 0 min 0 W/m 0,0 km/h (0 Bft) 97,87 %
05.08.2017 05:48 15,5 C 14,4 C 13,9 C 93 % 15 lf 1012,6 hPa 0,0 l/m 0 min 0 min 0 W/m 0,0 km/h (0 Bft) 95,74 %
05.08.2017 05:50 15,5 C 14,4 C 13,9 C 93 % 15 lf 1012,4 hPa 0,0 l/m 0 min 0 min 0 W/m 0,0 km/h (0 Bft) 97,87 %
05.08.2017 05:52 15,5 C 14,4 C 13,9 C 93 % 15 lf 1012,5 hPa 0,0 l/m 0 min 0 min 0 W/m 0,0 km/h (0 Bft) 93,62 %
05.08.2017 05:54 15,5 C 14,4 C 13,9 C 93 % 15 lf 1012,7 hPa 0,0 l/m 0 min 0 min 0 W/m 0,0 km/h (0 Bft) 97,87 %
05.08.2017 05:56 15,5 C 14,4 C 13,9 C 93 % 15 lf 1012,8 hPa 0,0 l/m 0 min 0 min 0 W/m 0,0 km/h (0 Bft) 95,65 %
05.08.2017 05:58 15,5 C 14,4 C 13,9 C 93 % 15 lf 1012,7 hPa 0,0 l/m 0 min 0 min 0 W/m 4,2 km/h (1 Bft) 97,87 %
05.08.2017 06:00 15,5 C 14,4 C 13,9 C 93 % 15 lf 1012,7 hPa 0,0 l/m 0 min 0 min 0 W/m 4,2 km/h (1 Bft) 93,62 %
05.08.2017 06:02 15,5 C 14,4 C 13,9 C 93 % 15 lf 1012,7 hPa 0,0 l/m 0 min 0 min 0 W/m 4,2 km/h (1 Bft) 97,87 %
05.08.2017 06:04 15,5 C 14,4 C 13,9 C 93 % 15 lf 1012,7 hPa 0,0 l/m 0 min 0 min 0 W/m 4,2 km/h (1 Bft) 95,74 %
05.08.2017 06:06 15,4 C 14,4 C 13,9 C 94 % 15 lf 1012,7 hPa 0,0 l/m 0 min 2 min 0 W/m 2,1 km/h (1 Bft) 95,74 %
05.08.2017 06:10 15,4 C 14,4 C 13,9 C 94 % 15 lf 1012,6 hPa 0,0 l/m 0 min 4 min 0 W/m 2,1 km/h (1 Bft) 95,79 %
05.08.2017 06:12 15,4 C 14,4 C 13,9 C 94 % 15 lf 1012,5 hPa 0,0 l/m 0 min 2 min 0 W/m 0,0 km/h (0 Bft) 97,87 %
05.08.2017 06:14 15,4 C 14,4 C 13,9 C 94 % 15 lf 1012,4 hPa 0,0 l/m 0 min 2 min 0 W/m 0,0 km/h (0 Bft) 97,87 %
05.08.2017 06:16 15,4 C 14,4 C 13,9 C 94 % 15 lf 1012,4 hPa 0,0 l/m 0 min 2 min 0 W/m 0,0 km/h (0 Bft) 97,87 %
05.08.2017 06:18 15,4 C 14,4 C 13,9 C 94 % 15 lf 1012,5 hPa 0,0 l/m 0 min 0 min 4 W/m 2,1 km/h (1 Bft) 95,74 %
05.08.2017 06:20 15,4 C 14,4 C 13,9 C 94 % 15 lf 1012,6 hPa 0,0 l/m 0 min 0 min 5 W/m 0,0 km/h (0 Bft) 97,83 %
05.08.2017 06:22 15,4 C 14,4 C 13,9 C 94 % 15 lf 1012,6 hPa 0,0 l/m 0 min 0 min 5 W/m 0,0 km/h (0 Bft) 97,87 %
05.08.2017 06:24 15,4 C 14,4 C 13,9 C 94 % 15 lf 1012,7 hPa 0,0 l/m 0 min 2 min 5 W/m 2,1 km/h (1 Bft) 95,74 %
05.08.2017 06:26 15,4 C 14,4 C 13,9 C 94 % 15 lf 1012,7 hPa 0,0 l/m 0 min 2 min 5 W/m 4,2 km/h (1 Bft) 95,74 %
05.08.2017 06:28 15,4 C 14,4 C 13,9 C 94 % 15 lf 1012,7 hPa 0,0 l/m 0 min 2 min 1 W/m 2,1 km/h (1 Bft) 95,74 %
05.08.2017 06:30 15,4 C 14,4 C 13,9 C 94 % 15 lf 1012,6 hPa 0,0 l/m 0 min 2 min 4 W/m 2,1 km/h (1 Bft) 97,83 %
05.08.2017 06:32 15,4 C 14,4 C 13,9 C 94 % 15 lf 1012,5 hPa 0,0 l/m 0 min 2 min 5 W/m 4,2 km/h (1 Bft) 97,87 %
05.08.2017 06:34 15,4 C 14,4 C 13,9 C 94 % 15 lf 1012,6 hPa 0,0 l/m 0 min 0 min 5 W/m 4,2 km/h (1 Bft) 97,87 %
05.08.2017 06:36 15,4 C 14,4 C 13,9 C 94 % 15 lf 1012,6 hPa 0,0 l/m 0 min 0 min 5 W/m 4,2 km/h (1 Bft) 95,74 %
05.08.2017 06:38 15,4 C 14,4 C 13,9 C 94 % 15 lf 1012,6 hPa 0,2 l/m 0 min 2 min 5 W/m 4,2 km/h (1 Bft) 97,87 %
05.08.2017 06:40 15,4 C 14,4 C 13,9 C 94 % 15 lf 1012,5 hPa 0,0 l/m 0 min 0 min 6 W/m 4,2 km/h (1 Bft) 97,87 %
05.08.2017 06:42 15,4 C 14,4 C 13,9 C 94 % 15 lf 1012,3 hPa 0,0 l/m 0 min 2 min 7 W/m 4,2 km/h (1 Bft) 95,65 %
05.08.2017 06:44 15,4 C 14,4 C 13,9 C 94 % 15 lf 1012,3 hPa 0,0 l/m 0 min 0 min 7 W/m 4,2 km/h (1 Bft) 97,87 %
05.08.2017 06:46 15,4 C 14,4 C 13,9 C 94 % 15 lf 1012,3 hPa 0,0 l/m 0 min 0 min 7 W/m 4,2 km/h (1 Bft) 97,87 %
05.08.2017 06:48 15,4 C 14,4 C 13,9 C 94 % 15 lf 1012,2 hPa 0,0 l/m 0 min 0 min 9 W/m 4,2 km/h (1 Bft) 97,87 %
05.08.2017 06:50 15,3 C 14,4 C 13,9 C 94 % 15 lf 1012,2 hPa 0,0 l/m 0 min 0 min 9 W/m 2,1 km/h (1 Bft) 97,87 %
05.08.2017 06:52 15,4 C 14,4 C 13,9 C 94 % 15 lf 1012,2 hPa 0,0 l/m 0 min 0 min 9 W/m 2,1 km/h (1 Bft) 95,74 %
05.08.2017 06:54 15,4 C 14,4 C 13,9 C 94 % 15 lf 1012,2 hPa 0,0 l/m 0 min 2 min 11 W/m 2,1 km/h (1 Bft) 97,83 %
05.08.2017 06:56 15,3 C 14,4 C 13,9 C 94 % 15 lf 1012,1 hPa 0,0 l/m 0 min 0 min 11 W/m 0,0 km/h (0 Bft) 95,74 %
05.08.2017 06:58 15,3 C 14,4 C 13,9 C 95 % 15 lf 1012,1 hPa 0,0 l/m 0 min 0 min 11 W/m 2,1 km/h (1 Bft) 95,74 %
05.08.2017 07:00 15,3 C 14,4 C 13,9 C 95 % 15 lf 1012,1 hPa 0,0 l/m 0 min 0 min 11 W/m 4,2 km/h (1 Bft) 95,74 %
05.08.2017 07:02 15,3 C 14,4 C 13,9 C 95 % 15 lf 1012,1 hPa 0,0 l/m 0 min 0 min 12 W/m 2,1 km/h (1 Bft) 97,87 %
05.08.2017 07:04 15,4 C 14,4 C 13,9 C 95 % 15 lf 1012,2 hPa 0,0 l/m 0 min 0 min 12 W/m 0,0 km/h (0 Bft) 95,74 %
05.08.2017 07:06 15,4 C 14,4 C 13,9 C 95 % 15 lf 1012,2 hPa 0,0 l/m 0 min 0 min 13 W/m 0,0 km/h (0 Bft) 95,65 %
05.08.2017 07:08 15,4 C 15,0 C 13,9 C 95 % 15 lf 1012,2 hPa 0,0 l/m 0 min 2 min 18 W/m 6,3 km/h (2 Bft) 97,87 %
05.08.2017 07:10 15,4 C 15,0 C 13,9 C 95 % 15 lf 1012,1 hPa 0,0 l/m 0 min 0 min 19 W/m 6,3 km/h (2 Bft) 97,87 %
05.08.2017 07:12 15,4 C 15,0 C 13,9 C 95 % 15 lf 1012,0 hPa 0,0 l/m 0 min 0 min 17 W/m 8,4 km/h (2 Bft) 97,87 %
05.08.2017 07:14 15,4 C 15,0 C 14,4 C 95 % 15 lf 1012,0 hPa 0,0 l/m 0 min 0 min 14 W/m 6,3 km/h (2 Bft) 97,87 %
05.08.2017 07:16 15,4 C 15,0 C 14,4 C 95 % 15 lf 1012,1 hPa 0,0 l/m 0 min 0 min 14 W/m 8,4 km/h (2 Bft) 100,00 %
05.08.2017 07:18 15,4 C 15,0 C 14,4 C 95 % 15 lf 1012,1 hPa 0,0 l/m 0 min 0 min 14 W/m 6,3 km/h (2 Bft) 97,83 %
05.08.2017 07:20 15,4 C 15,0 C 14,4 C 95 % 15 lf 1012,2 hPa 0,0 l/m 0 min 0 min 14 W/m 4,2 km/h (1 Bft) 100,00 %
05.08.2017 07:22 15,5 C 15,0 C 14,4 C 95 % 15 lf 1012,2 hPa 0,0 l/m 0 min 2 min 15 W/m 4,2 km/h (1 Bft) 95,74 %
05.08.2017 07:24 15,5 C 15,0 C 14,4 C 95 % 15 lf 1012,1 hPa 0,0 l/m 0 min 2 min 15 W/m 4,2 km/h (1 Bft) 100,00 %
05.08.2017 07:26 15,5 C 15,0 C 13,9 C 95 % 15 lf 1012,1 hPa 0,2 l/m 0 min 2 min 14 W/m 6,3 km/h (2 Bft) 97,87 %
05.08.2017 07:28 15,5 C 15,0 C 14,4 C 95 % 15 lf 1012,1 hPa 0,0 l/m 0 min 2 min 14 W/m 6,3 km/h (2 Bft) 95,65 %
05.08.2017 07:30 15,5 C 15,0 C 14,4 C 95 % 15 lf 1012,1 hPa 0,2 l/m 0 min 2 min 17 W/m 8,4 km/h (2 Bft) 93,62 %
05.08.2017 07:32 15,5 C 15,0 C 13,9 C 95 % 15 lf 1012,0 hPa 0,0 l/m 0 min 2 min 21 W/m 4,2 km/h (1 Bft) 97,87 %
05.08.2017 07:34 15,5 C 15,0 C 14,4 C 95 % 15 lf 1012,1 hPa 0,0 l/m 0 min 2 min 25 W/m 8,4 km/h (2 Bft) 97,87 %
05.08.2017 07:36 15,6 C 15,0 C 14,4 C 96 % 15 lf 1012,2 hPa 0,2 l/m 0 min 2 min 28 W/m 8,4 km/h (2 Bft) 93,62 %
05.08.2017 07:38 15,5 C 15,0 C 14,4 C 96 % 15 lf 1012,1 hPa 0,2 l/m 0 min 2 min 29 W/m 6,3 km/h (2 Bft) 92,00 %
05.08.2017 07:40 15,5 C 15,0 C 14,4 C 96 % 15 lf 1012,1 hPa 0,0 l/m 0 min 2 min 24 W/m 6,3 km/h (2 Bft) 91,49 %
05.08.2017 07:42 15,5 C 15,0 C 14,4 C 96 % 15 lf 1012,1 hPa 0,2 l/m 0 min 2 min 19 W/m 6,3 km/h (2 Bft) 93,62 %
05.08.2017 07:44 15,6 C 15,0 C 14,4 C 96 % 15 lf 1012,0 hPa 0,0 l/m 0 min 2 min 18 W/m 4,2 km/h (1 Bft) 93,62 %
05.08.2017 07:46 15,6 C 15,0 C 14,4 C 96 % 15 lf 1012,0 hPa 0,2 l/m 0 min 2 min 21 W/m 6,3 km/h (2 Bft) 93,48 %
05.08.2017 07:48 15,5 C 15,0 C 14,4 C 96 % 15 lf 1012,0 hPa 0,4 l/m 0 min 2 min 27 W/m 4,2 km/h (1 Bft) 95,74 %
05.08.2017 07:50 15,5 C 15,0 C 14,4 C 96 % 15 lf 1012,0 hPa 0,2 l/m 0 min 2 min 27 W/m 6,3 km/h (2 Bft) 93,62 %
05.08.2017 07:52 15,6 C 15,0 C 14,4 C 96 % 15 lf 1012,0 hPa 0,2 l/m 0 min 2 min 24 W/m 6,3 km/h (2 Bft) 87,23 %
05.08.2017 07:54 15,6 C 15,0 C 13,9 C 96 % 15 lf 1012,1 hPa 0,0 l/m 0 min 2 min 19 W/m 6,3 km/h (2 Bft) 87,23 %
05.08.2017 07:56 15,5 C 15,0 C 13,9 C 96 % 15 lf 1012,0 hPa 0,2 l/m 0 min 2 min 15 W/m 4,2 km/h (1 Bft) 93,62 %
05.08.2017 07:58 15,6 C 15,0 C 13,9 C 96 % 15 lf 1012,0 hPa 0,2 l/m 0 min 2 min 14 W/m 2,1 km/h (1 Bft) 91,30 %
05.08.2017 08:00 15,5 C 15,0 C 14,4 C 96 % 15 lf 1012,0 hPa 0,2 l/m 0 min 2 min 14 W/m 2,1 km/h (1 Bft) 93,62 %
05.08.2017 08:02 15,5 C 15,0 C 14,4 C 96 % 15 lf 1012,0 hPa 0,0 l/m 0 min 2 min 14 W/m 2,1 km/h (1 Bft) 93,62 %
05.08.2017 08:04 15,5 C 15,0 C 14,4 C 96 % 15 lf 1012,0 hPa 0,2 l/m 0 min 2 min 14 W/m 0,0 km/h (0 Bft) 93,62 %
05.08.2017 08:06 15,5 C 15,0 C 14,4 C 96 % 15 lf 1012,0 hPa 0,2 l/m 0 min 2 min 15 W/m 0,0 km/h (0 Bft) 93,62 %
05.08.2017 08:08 15,5 C 15,0 C 14,4 C 96 % 15 lf 1012,0 hPa 0,2 l/m 0 min 2 min 17 W/m 0,0 km/h (0 Bft) 89,36 %
05.08.2017 08:10 15,6 C 15,0 C 14,4 C 96 % 15 lf 1012,0 hPa 0,2 l/m 0 min 2 min 18 W/m 0,0 km/h (0 Bft) 93,48 %
05.08.2017 08:12 15,5 C 15,0 C 14,4 C 96 % 15 lf 1012,0 hPa 0,0 l/m 0 min 2 min 19 W/m 0,0 km/h (0 Bft) 95,74 %
05.08.2017 08:14 15,6 C 15,0 C 14,4 C 96 % 15 lf 1012,0 hPa 0,2 l/m 0 min 2 min 19 W/m 0,0 km/h (0 Bft) 97,87 %
05.08.2017 08:16 15,5 C 15,0 C 14,4 C 96 % 15 lf 1012,1 hPa 0,4 l/m 0 min 2 min 16 W/m 0,0 km/h (0 Bft) 95,74 %
05.08.2017 08:18 15,5 C 15,0 C 14,4 C 96 % 15 lf 1012,2 hPa 0,2 l/m 0 min 2 min 16 W/m 0,0 km/h (0 Bft) 97,87 %
05.08.2017 08:20 15,5 C 15,0 C 14,4 C 96 % 15 lf 1012,1 hPa 0,4 l/m 0 min 2 min 18 W/m 0,0 km/h (0 Bft) 95,74 %
05.08.2017 08:22 15,5 C 15,0 C 14,4 C 96 % 15 lf 1012,2 hPa 0,2 l/m 0 min 2 min 15 W/m 0,0 km/h (0 Bft) 97,83 %
05.08.2017 08:24 15,6 C 15,0 C 14,4 C 96 % 15 lf 1012,2 hPa 0,2 l/m 0 min 2 min 12 W/m 0,0 km/h (0 Bft) 97,87 %
05.08.2017 08:26 15,6 C 15,0 C 14,4 C 96 % 15 lf 1012,2 hPa 0,0 l/m 0 min 2 min 12 W/m 0,0 km/h (0 Bft) 95,74 %
05.08.2017 08:28 15,6 C 15,0 C 14,4 C 96 % 15 lf 1012,1 hPa 0,4 l/m 0 min 2 min 14 W/m 0,0 km/h (0 Bft) 97,87 %
05.08.2017 08:30 15,6 C 15,0 C 13,9 C 96 % 15 lf 1012,2 hPa 0,2 l/m 0 min 2 min 16 W/m 0,0 km/h (0 Bft) 100,00 %
05.08.2017 08:32 15,6 C 15,0 C 13,9 C 96 % 15 lf 1012,1 hPa 0,4 l/m 0 min 2 min 16 W/m 0,0 km/h (0 Bft) 95,65 %
05.08.2017 08:34 15,6 C 15,0 C 13,9 C 96 % 15 lf 1012,2 hPa 0,2 l/m 0 min 2 min 15 W/m 0,0 km/h (0 Bft) 97,87 %
05.08.2017 08:36 15,6 C 15,0 C 14,4 C 96 % 15 lf 1012,3 hPa 0,4 l/m 0 min 2 min 14 W/m 0,0 km/h (0 Bft) 97,87 %
05.08.2017 08:38 15,6 C 15,0 C 13,9 C 96 % 15 lf 1012,3 hPa 0,2 l/m 0 min 2 min 16 W/m 0,0 km/h (0 Bft) 100,00 %
05.08.2017 08:40 15,6 C 15,0 C 13,9 C 96 % 15 lf 1012,2 hPa 0,2 l/m 0 min 2 min 19 W/m 0,0 km/h (0 Bft) 100,00 %
05.08.2017 08:42 15,6 C 15,0 C 13,9 C 97 % 15 lf 1012,3 hPa 0,4 l/m 0 min 2 min 18 W/m 0,0 km/h (0 Bft) 97,87 %
05.08.2017 08:44 15,6 C 15,0 C 14,4 C 97 % 15 lf 1012,4 hPa 0,2 l/m 0 min 2 min 14 W/m 0,0 km/h (0 Bft) 100,00 %
05.08.2017 08:46 15,6 C 15,0 C 14,4 C 97 % 15 lf 1012,3 hPa 0,2 l/m 0 min 2 min 15 W/m 0,0 km/h (0 Bft) 97,87 %
05.08.2017 08:48 15,6 C 15,0 C 14,4 C 97 % 15 lf 1012,3 hPa 0,2 l/m 0 min 2 min 21 W/m 0,0 km/h (0 Bft) 100,00 %
05.08.2017 08:50 15,5 C 15,0 C 14,4 C 97 % 15 lf 1012,3 hPa 0,4 l/m 0 min 2 min 27 W/m 0,0 km/h (0 Bft) 95,74 %
05.08.2017 08:52 15,5 C 15,0 C 14,4 C 97 % 15 lf 1012,3 hPa 0,2 l/m 0 min 2 min 28 W/m 0,0 km/h (0 Bft) 100,00 %
05.08.2017 08:54 15,6 C 15,0 C 14,4 C 97 % 15 lf 1012,4 hPa 0,2 l/m 0 min 2 min 25 W/m 0,0 km/h (0 Bft) 97,87 %
05.08.2017 08:56 15,5 C 15,0 C 14,4 C 97 % 15 lf 1012,5 hPa 0,4 l/m 0 min 2 min 21 W/m 0,0 km/h (0 Bft) 100,00 %
05.08.2017 08:58 15,5 C 15,0 C 14,4 C 97 % 15 lf 1012,3 hPa 0,2 l/m 0 min 2 min 25 W/m 0,0 km/h (0 Bft) 100,00 %
05.08.2017 09:00 15,6 C 15,0 C 14,4 C 97 % 15 lf 1012,3 hPa 0,2 l/m 0 min 2 min 36 W/m 0,0 km/h (0 Bft) 97,87 %
05.08.2017 09:02 15,6 C 15,0 C 14,4 C 97 % 15 lf 1012,3 hPa 0,4 l/m 0 min 2 min 39 W/m 0,0 km/h (0 Bft) 97,87 %
05.08.2017 09:04 15,6 C 15,0 C 14,4 C 97 % 15 lf 1012,2 hPa 0,0 l/m 0 min 2 min 38 W/m 0,0 km/h (0 Bft) 100,00 %
05.08.2017 09:06 15,6 C 15,0 C 14,4 C 97 % 15 lf 1012,3 hPa 0,2 l/m 0 min 2 min 37 W/m 0,0 km/h (0 Bft) 100,00 %
05.08.2017 09:08 15,6 C 15,0 C 14,4 C 97 % 15 lf 1012,4 hPa 0,2 l/m 0 min 2 min 38 W/m 0,0 km/h (0 Bft) 100,00 %
05.08.2017 09:10 15,6 C 15,0 C 14,4 C 97 % 15 lf 1012,3 hPa 0,0 l/m 0 min 2 min 40 W/m 0,0 km/h (0 Bft) 100,00 %
05.08.2017 09:12 15,6 C 15,0 C 14,4 C 97 % 15 lf 1012,3 hPa 0,2 l/m 0 min 2 min 40 W/m 0,0 km/h (0 Bft) 100,00 %
05.08.2017 09:14 15,6 C 15,0 C 14,4 C 97 % 15 lf 1012,4 hPa 0,0 l/m 0 min 2 min 36 W/m 0,0 km/h (0 Bft) 100,00 %
05.08.2017 09:16 15,6 C 15,0 C 14,4 C 97 % 15 lf 1012,5 hPa 0,2 l/m 0 min 2 min 36 W/m 0,0 km/h (0 Bft) 97,87 %
05.08.2017 09:18 15,6 C 15,6 C 14,4 C 97 % 15 lf 1012,5 hPa 0,0 l/m 0 min 2 min 41 W/m 0,0 km/h (0 Bft) 95,74 %
05.08.2017 09:20 15,6 C 15,6 C 15,0 C 97 % 15 lf 1012,5 hPa 0,2 l/m 0 min 2 min 49 W/m 4,2 km/h (1 Bft) 97,83 %
05.08.2017 09:22 15,6 C 15,6 C 15,0 C 97 % 15 lf 1012,6 hPa 0,0 l/m 0 min 2 min 62 W/m 4,2 km/h (1 Bft) 100,00 %
05.08.2017 09:24 15,6 C 15,6 C 15,0 C 97 % 15 lf 1012,6 hPa 0,0 l/m 0 min 2 min 68 W/m 4,2 km/h (1 Bft) 100,00 %
05.08.2017 09:26 15,7 C 15,6 C 15,0 C 97 % 15 lf 1012,6 hPa 0,2 l/m 0 min 2 min 70 W/m 4,2 km/h (1 Bft) 100,00 %
05.08.2017 09:28 15,7 C 15,6 C 15,0 C 97 % 15 lf 1012,5 hPa 0,0 l/m 0 min 2 min 76 W/m 8,4 km/h (2 Bft) 97,87 %
05.08.2017 09:30 15,7 C 15,6 C 15,0 C 97 % 15 lf 1012,5 hPa 0,2 l/m 0 min 2 min 80 W/m 6,3 km/h (2 Bft) 95,74 %
05.08.2017 09:32 15,7 C 15,6 C 15,0 C 97 % 15 lf 1012,4 hPa 0,0 l/m 0 min 2 min 79 W/m 10,5 km/h (2 Bft) 100,00 %
05.08.2017 09:34 15,7 C 15,6 C 15,0 C 97 % 15 lf 1012,3 hPa 0,2 l/m 0 min 2 min 83 W/m 6,3 km/h (2 Bft) 97,87 %
05.08.2017 09:36 15,8 C 15,6 C 15,0 C 97 % 15 lf 1012,3 hPa 0,0 l/m 0 min 2 min 97 W/m 4,2 km/h (1 Bft) 97,87 %
05.08.2017 09:38 15,8 C 16,1 C 15,0 C 97 % 15 lf 1012,3 hPa 0,2 l/m 0 min 2 min 92 W/m 4,2 km/h (1 Bft) 97,87 %
05.08.2017 09:40 15,8 C 15,6 C 15,0 C 97 % 15 lf 1012,4 hPa 0,0 l/m 0 min 2 min 69 W/m 6,3 km/h (2 Bft) 97,87 %
05.08.2017 09:42 15,8 C 15,6 C 15,0 C 97 % 15 lf 1012,5 hPa 0,0 l/m 0 min 2 min 72 W/m 6,3 km/h (2 Bft) 93,62 %
05.08.2017 09:44 15,9 C 15,6 C 15,0 C 97 % 15 lf 1012,3 hPa 0,0 l/m 0 min 2 min 85 W/m 4,2 km/h (1 Bft) 95,65 %
05.08.2017 09:46 15,9 C 15,6 C 15,0 C 97 % 15 lf 1012,3 hPa 0,2 l/m 0 min 2 min 93 W/m 4,2 km/h (1 Bft) 95,74 %
05.08.2017 09:48 15,9 C 15,6 C 15,0 C 97 % 15 lf 1012,3 hPa 0,0 l/m 0 min 2 min 96 W/m 6,3 km/h (2 Bft) 93,62 %
05.08.2017 09:50 15,9 C 15,6 C 15,0 C 97 % 15 lf 1012,3 hPa 0,0 l/m 0 min 2 min 103 W/m 6,3 km/h (2 Bft) 95,74 %
05.08.2017 09:52 15,9 C 15,6 C 15,6 C 97 % 15 lf 1012,3 hPa 0,0 l/m 0 min 2 min 111 W/m 4,2 km/h (1 Bft) 95,74 %
05.08.2017 09:54 15,9 C 15,6 C 15,6 C 97 % 15 lf 1012,2 hPa 0,0 l/m 0 min 2 min 109 W/m 2,1 km/h (1 Bft) 95,65 %
05.08.2017 09:56 15,9 C 16,1 C 15,6 C 97 % 15 lf 1012,2 hPa 0,0 l/m 0 min 2 min 102 W/m 2,1 km/h (1 Bft) 95,74 %
05.08.2017 09:58 15,9 C 15,6 C 15,0 C 97 % 15 lf 1012,3 hPa 0,0 l/m 0 min 2 min 86 W/m 2,1 km/h (1 Bft) 95,74 %
05.08.2017 10:00 15,9 C 15,6 C 15,0 C 97 % 15 lf 1012,2 hPa 0,0 l/m 0 min 2 min 70 W/m 2,1 km/h (1 Bft) 93,62 %
05.08.2017 10:02 15,9 C 15,6 C 15,0 C 97 % 15 lf 1012,2 hPa 0,0 l/m 0 min 2 min 64 W/m 4,2 km/h (1 Bft) 93,62 %
05.08.2017 10:04 16,0 C 15,6 C 15,0 C 97 % 15 lf 1012,2 hPa 0,0 l/m 0 min 0 min 57 W/m 4,2 km/h (1 Bft) 95,74 %
05.08.2017 10:06 16,0 C 15,6 C 15,0 C 97 % 15 lf 1012,2 hPa 0,0 l/m 0 min 2 min 50 W/m 6,3 km/h (2 Bft) 97,83 %
05.08.2017 10:08 16,0 C 15,6 C 15,0 C 97 % 15 lf 1012,3 hPa 0,0 l/m 0 min 2 min 47 W/m 10,5 km/h (2 Bft) 93,62 %
05.08.2017 10:10 16,0 C 15,0 C 15,0 C 97 % 15 lf 1012,3 hPa 0,2 l/m 0 min 2 min 48 W/m 10,5 km/h (2 Bft) 97,87 %
05.08.2017 10:12 15,9 C 15,6 C 15,0 C 97 % 15 lf 1012,2 hPa 0,0 l/m 0 min 2 min 48 W/m 10,5 km/h (2 Bft) 95,74 %
05.08.2017 10:14 15,9 C 15,6 C 15,0 C 97 % 15 lf 1012,3 hPa 0,0 l/m 0 min 2 min 49 W/m 6,3 km/h (2 Bft) 93,62 %
05.08.2017 10:16 15,9 C 15,6 C 15,0 C 97 % 15 lf 1012,3 hPa 0,0 l/m 0 min 2 min 49 W/m 4,2 km/h (1 Bft) 93,62 %
05.08.2017 10:18 15,9 C 15,6 C 15,0 C 97 % 15 lf 1012,3 hPa 0,2 l/m 0 min 2 min 54 W/m 8,4 km/h (2 Bft) 97,83 %
05.08.2017 10:20 15,9 C 15,6 C 15,0 C 97 % 15 lf 1012,3 hPa 0,0 l/m 0 min 2 min 61 W/m 12,6 km/h (3 Bft) 95,74 %
05.08.2017 10:22 15,9 C 15,6 C 15,0 C 97 % 15 lf 1012,2 hPa 0,0 l/m 0 min 2 min 61 W/m 6,3 km/h (2 Bft) 95,74 %
05.08.2017 10:24 15,9 C 15,6 C 15,0 C 97 % 15 lf 1012,4 hPa 0,0 l/m 0 min 2 min 72 W/m 6,3 km/h (2 Bft) 89,36 %
05.08.2017 10:26 15,9 C 15,6 C 15,0 C 97 % 15 lf 1012,4 hPa 0,0 l/m 0 min 2 min 69 W/m 6,3 km/h (2 Bft) 87,23 %
05.08.2017 10:28 15,9 C 15,6 C 15,0 C 97 % 15 lf 1012,4 hPa 0,2 l/m 0 min 2 min 62 W/m 8,4 km/h (2 Bft) 93,62 %
05.08.2017 10:30 15,9 C 15,6 C 15,0 C 97 % 15 lf 1012,4 hPa 0,0 l/m 0 min 2 min 57 W/m 8,4 km/h (2 Bft) 91,30 %
05.08.2017 10:32 15,9 C 15,6 C 15,0 C 97 % 15 lf 1012,5 hPa 0,0 l/m 0 min 2 min 63 W/m 10,5 km/h (2 Bft) 91,49 %
05.08.2017 10:34 15,8 C 15,0 C 14,4 C 97 % 15 lf 1012,5 hPa 0,0 l/m 0 min 2 min 72 W/m 14,6 km/h (3 Bft) 93,62 %
05.08.2017 10:36 15,7 C 15,0 C 15,0 C 97 % 15 lf 1012,5 hPa 0,2 l/m 0 min 2 min 111 W/m 10,5 km/h (2 Bft) 93,62 %
05.08.2017 10:38 15,7 C 15,6 C 15,0 C 97 % 15 lf 1012,5 hPa 0,0 l/m 0 min 2 min 175 W/m 14,6 km/h (3 Bft) 93,62 %
05.08.2017 10:40 15,7 C 15,6 C 15,0 C 97 % 15 lf 1012,5 hPa 0,2 l/m 0 min 2 min 183 W/m 10,5 km/h (2 Bft) 93,62 %
05.08.2017 10:42 15,7 C 15,6 C 15,0 C 97 % 15 lf 1012,5 hPa 0,0 l/m 0 min 2 min 168 W/m 8,4 km/h (2 Bft) 93,48 %
05.08.2017 10:44 15,7 C 15,6 C 15,0 C 97 % 15 lf 1012,5 hPa 0,0 l/m 0 min 2 min 201 W/m 10,5 km/h (2 Bft) 91,49 %
05.08.2017 10:46 15,7 C 15,6 C 15,6 C 97 % 15 lf 1012,5 hPa 0,0 l/m 0 min 2 min 237 W/m 10,5 km/h (2 Bft) 91,49 %
05.08.2017 10:48 15,7 C 16,1 C 15,6 C 97 % 15 lf 1012,5 hPa 0,2 l/m 0 min 2 min 228 W/m 12,6 km/h (3 Bft) 93,62 %
05.08.2017 10:50 15,7 C 15,6 C 15,6 C 97 % 15 lf 1012,5 hPa 0,0 l/m 0 min 2 min 167 W/m 16,7 km/h (3 Bft) 97,87 %
05.08.2017 10:52 15,7 C 15,6 C 15,0 C 97 % 15 lf 1012,6 hPa 0,0 l/m 0 min 0 min 149 W/m 14,6 km/h (3 Bft) 93,48 %
05.08.2017 10:54 15,7 C 15,0 C 15,0 C 97 % 15 lf 1012,6 hPa 0,0 l/m 0 min 0 min 144 W/m 12,6 km/h (3 Bft) 95,74 %
05.08.2017 10:56 15,6 C 15,0 C 15,0 C 97 % 15 lf 1012,5 hPa 0,0 l/m 0 min 2 min 157 W/m 12,6 km/h (3 Bft) 95,74 %
05.08.2017 10:58 15,6 C 15,6 C 15,0 C 97 % 15 lf 1012,6 hPa 0,0 l/m 0 min 0 min 179 W/m 10,5 km/h (2 Bft) 93,62 %
05.08.2017 11:00 15,6 C 15,6 C 15,6 C 97 % 15 lf 1012,6 hPa 0,0 l/m 0 min 0 min 167 W/m 14,6 km/h (3 Bft) 95,74 %
05.08.2017 11:02 15,6 C 15,6 C 15,0 C 97 % 15 lf 1012,8 hPa 0,0 l/m 0 min 0 min 128 W/m 12,6 km/h (3 Bft) 95,74 %
05.08.2017 11:04 15,6 C 15,6 C 15,0 C 97 % 15 lf 1012,8 hPa 0,0 l/m 0 min 0 min 100 W/m 10,5 km/h (2 Bft) 91,30 %
05.08.2017 11:06 15,6 C 15,6 C 15,0 C 97 % 15 lf 1013,0 hPa 0,0 l/m 0 min 0 min 72 W/m 12,6 km/h (3 Bft) 95,74 %
05.08.2017 11:08 15,6 C 15,0 C 15,0 C 97 % 15 lf 1013,1 hPa 0,0 l/m 0 min 0 min 59 W/m 14,6 km/h (3 Bft) 97,87 %
05.08.2017 11:10 15,6 C 15,0 C 15,0 C 97 % 15 lf 1013,1 hPa 0,0 l/m 0 min 0 min 56 W/m 16,7 km/h (3 Bft) 97,87 %
05.08.2017 11:12 15,6 C 15,0 C 15,0 C 97 % 15 lf 1013,1 hPa 0,0 l/m 0 min 0 min 80 W/m 16,7 km/h (3 Bft) 97,87 %
05.08.2017 11:14 15,6 C 15,0 C 14,4 C 97 % 15 lf 1013,2 hPa 0,0 l/m 0 min 0 min 84 W/m 20,9 km/h (4 Bft) 95,74 %
05.08.2017 11:16 15,5 C 15,0 C 14,4 C 97 % 15 lf 1013,2 hPa 0,0 l/m 0 min 0 min 92 W/m 16,7 km/h (3 Bft) 97,83 %
05.08.2017 11:18 15,4 C 15,0 C 14,4 C 97 % 15 lf 1013,1 hPa 0,0 l/m 0 min 0 min 106 W/m 10,5 km/h (2 Bft) 100,00 %
05.08.2017 11:20 15,4 C 15,0 C 14,4 C 97 % 15 lf 1013,1 hPa 0,0 l/m 0 min 0 min 128 W/m 18,8 km/h (3 Bft) 100,00 %
05.08.2017 11:22 15,3 C 15,0 C 14,4 C 97 % 15 lf 1013,1 hPa 0,0 l/m 0 min 0 min 135 W/m 16,7 km/h (3 Bft) 95,74 %
05.08.2017 11:24 15,3 C 15,0 C 14,4 C 97 % 15 lf 1013,1 hPa 0,0 l/m 0 min 0 min 143 W/m 16,7 km/h (3 Bft) 97,87 %
05.08.2017 11:26 15,2 C 15,0 C 15,0 C 97 % 15 lf 1013,1 hPa 0,0 l/m 0 min 0 min 167 W/m 16,7 km/h (3 Bft) 100,00 %
05.08.2017 11:28 15,2 C 15,0 C 15,0 C 97 % 15 lf 1013,1 hPa 0,0 l/m 0 min 0 min 173 W/m 12,6 km/h (3 Bft) 100,00 %
05.08.2017 11:30 15,1 C 15,0 C 15,0 C 97 % 15 lf 1013,0 hPa 0,0 l/m 0 min 0 min 206 W/m 12,6 km/h (3 Bft) 100,00 %
05.08.2017 11:32 15,1 C 15,6 C 15,0 C 97 % 15 lf 1013,0 hPa 0,0 l/m 0 min 0 min 220 W/m 6,3 km/h (2 Bft) 95,74 %
05.08.2017 11:34 15,1 C 15,6 C 15,0 C 97 % 15 lf 1013,0 hPa 0,0 l/m 0 min 0 min 215 W/m 6,3 km/h (2 Bft) 91,49 %
05.08.2017 11:36 15,1 C 15,6 C 15,0 C 97 % 15 lf 1013,0 hPa 0,0 l/m 0 min 0 min 207 W/m 8,4 km/h (2 Bft) 95,74 %
05.08.2017 11:38 15,1 C 15,6 C 15,6 C 97 % 15 lf 1012,9 hPa 0,0 l/m 0 min 0 min 209 W/m 8,4 km/h (2 Bft) 97,87 %
05.08.2017 11:40 15,1 C 16,1 C 15,6 C 97 % 15 lf 1012,9 hPa 0,0 l/m 0 min 0 min 221 W/m 8,4 km/h (2 Bft) 95,65 %
05.08.2017 11:42 15,2 C 16,1 C 15,6 C 97 % 15 lf 1013,0 hPa 0,0 l/m 0 min 0 min 205 W/m 8,4 km/h (2 Bft) 97,87 %
05.08.2017 11:44 15,2 C 15,6 C 15,6 C 97 % 15 lf 1013,0 hPa 0,0 l/m 0 min 0 min 186 W/m 8,4 km/h (2 Bft) 97,87 %
05.08.2017 11:46 15,2 C 16,1 C 15,6 C 97 % 15 lf 1013,1 hPa 0,0 l/m 0 min 0 min 189 W/m 6,3 km/h (2 Bft) 95,74 %
05.08.2017 11:48 15,2 C 16,1 C 15,6 C 97 % 15 lf 1013,3 hPa 0,0 l/m 0 min 0 min 183 W/m 8,4 km/h (2 Bft) 97,87 %
05.08.2017 11:50 15,3 C 15,6 C 15,6 C 97 % 15 lf 1013,3 hPa 0,0 l/m 0 min 0 min 168 W/m 8,4 km/h (2 Bft) 95,74 %
05.08.2017 11:52 15,3 C 15,0 C 15,6 C 97 % 15 lf 1013,2 hPa 0,0 l/m 0 min 0 min 222 W/m 10,5 km/h (2 Bft) 97,83 %
05.08.2017 11:54 15,2 C 15,6 C 15,6 C 97 % 15 lf 1013,2 hPa 0,0 l/m 0 min 0 min 253 W/m 12,6 km/h (3 Bft) 95,74 %
05.08.2017 11:56 15,2 C 15,6 C 15,6 C 97 % 15 lf 1013,1 hPa 0,0 l/m 0 min 0 min 246 W/m 10,5 km/h (2 Bft) 100,00 %
05.08.2017 11:58 15,2 C 16,1 C 15,6 C 97 % 15 lf 1013,2 hPa 0,0 l/m 0 min 0 min 267 W/m 10,5 km/h (2 Bft) 95,74 %
05.08.2017 12:00 15,1 C 15,6 C 15,6 C 97 % 13 lf 1013,2 hPa 0,0 l/m 0 min 0 min 292 W/m 8,4 km/h (2 Bft) 97,87 %
05.08.2017 12:02 15,1 C 16,7 C 15,6 C 97 % 12 lf 1013,2 hPa 0,0 l/m 0 min 0 min 297 W/m 8,4 km/h (2 Bft) 97,87 %
05.08.2017 12:04 15,2 C 16,1 C 15,6 C 97 % 10 lf 1013,2 hPa 0,0 l/m 0 min 0 min 302 W/m 10,5 km/h (2 Bft) 97,83 %
05.08.2017 12:06 15,2 C 16,1 C 16,1 C 97 % 8 lf 1013,3 hPa 0,0 l/m 0 min 0 min 310 W/m 10,5 km/h (2 Bft) 97,87 %
05.08.2017 12:10 15,2 C 16,7 C 16,1 C 97 % 6 lf 1013,4 hPa 0,0 l/m 0 min 0 min 298 W/m 14,6 km/h (3 Bft) 98,94 %
05.08.2017 12:12 15,3 C 16,1 C 16,1 C 97 % 5 lf 1013,5 hPa 0,0 l/m 0 min 0 min 277 W/m 12,6 km/h (3 Bft) 97,87 %
05.08.2017 12:14 15,3 C 16,7 C 16,1 C 97 % 4 lf 1013,5 hPa 0,0 l/m 0 min 0 min 297 W/m 8,4 km/h (2 Bft) 95,74 %
05.08.2017 12:16 15,4 C 16,7 C 16,7 C 97 % 4 lf 1013,6 hPa 0,0 l/m 0 min 0 min 291 W/m 14,6 km/h (3 Bft) 100,00 %
05.08.2017 12:18 15,4 C 16,7 C 16,1 C 97 % 3 lf 1013,6 hPa 0,0 l/m 0 min 0 min 231 W/m 12,6 km/h (3 Bft) 100,00 %
05.08.2017 12:20 15,5 C 17,2 C 16,1 C 97 % 3 lf 1013,6 hPa 0,0 l/m 0 min 0 min 246 W/m 8,4 km/h (2 Bft) 100,00 %
05.08.2017 12:22 15,6 C 17,8 C 16,7 C 97 % 3 lf 1013,6 hPa 0,0 l/m 0 min 0 min 292 W/m 14,6 km/h (3 Bft) 100,00 %
05.08.2017 12:24 15,6 C 18,3 C 16,7 C 97 % 3 lf 1013,5 hPa 0,0 l/m 0 min 0 min 317 W/m 14,6 km/h (3 Bft) 93,62 %
05.08.2017 12:26 15,7 C 18,9 C 17,2 C 97 % 2 lf 1013,6 hPa 0,0 l/m 2 min 0 min 448 W/m 12,6 km/h (3 Bft) 100,00 %
05.08.2017 12:28 15,8 C 20,0 C 17,8 C 97 % 2 lf 1013,5 hPa 0,0 l/m 2 min 0 min 469 W/m 10,5 km/h (2 Bft) 100,00 %
05.08.2017 12:30 15,9 C 20,6 C 17,8 C 97 % 1 lf 1013,5 hPa 0,0 l/m 2 min 0 min 492 W/m 18,8 km/h (3 Bft) 100,00 %
05.08.2017 12:32 16,0 C 21,7 C 17,8 C 97 % 1 lf 1013,5 hPa 0,0 l/m 2 min 0 min 573 W/m 12,6 km/h (3 Bft) 100,00 %
05.08.2017 12:34 16,1 C 22,8 C 18,3 C 97 % 1 lf 1013,5 hPa 0,0 l/m 2 min 0 min 578 W/m 10,5 km/h (2 Bft) 100,00 %
05.08.2017 12:36 16,2 C 22,2 C 18,3 C 97 % 1 lf 1013,6 hPa 0,0 l/m 2 min 0 min 460 W/m 12,6 km/h (3 Bft) 100,00 %
05.08.2017 12:38 16,3 C 22,2 C 17,8 C 97 % 0 lf 1013,5 hPa 0,0 l/m 0 min 0 min 365 W/m 10,5 km/h (2 Bft) 100,00 %
05.08.2017 12:40 16,3 C 21,1 C 17,2 C 97 % 0 lf 1013,6 hPa 0,0 l/m 0 min 0 min 372 W/m 14,6 km/h (3 Bft) 95,74 %
05.08.2017 12:42 16,4 C 21,1 C 17,2 C 96 % 0 lf 1013,5 hPa 0,0 l/m 0 min 0 min 379 W/m 14,6 km/h (3 Bft) 100,00 %
05.08.2017 12:44 16,4 C 21,1 C 17,2 C 96 % 0 lf 1013,5 hPa 0,0 l/m 0 min 0 min 344 W/m 14,6 km/h (3 Bft) 97,87 %
05.08.2017 12:46 16,4 C 20,0 C 17,2 C 96 % 0 lf 1013,5 hPa 0,0 l/m 0 min 0 min 340 W/m 12,6 km/h (3 Bft) 100,00 %
05.08.2017 12:48 16,5 C 20,6 C 17,8 C 96 % 0 lf 1013,6 hPa 0,0 l/m 0 min 0 min 372 W/m 18,8 km/h (3 Bft) 100,00 %
05.08.2017 12:50 16,6 C 19,4 C 17,2 C 95 % 0 lf 1013,5 hPa 0,0 l/m 2 min 0 min 422 W/m 16,7 km/h (3 Bft) 95,65 %
05.08.2017 12:52 16,6 C 19,4 C 17,2 C 95 % 0 lf 1013,5 hPa 0,0 l/m 0 min 0 min 357 W/m 16,7 km/h (3 Bft) 100,00 %
05.08.2017 12:54 16,6 C 19,4 C 17,2 C 94 % 0 lf 1013,5 hPa 0,0 l/m 0 min 0 min 360 W/m 14,6 km/h (3 Bft) 100,00 %
05.08.2017 12:56 16,6 C 21,1 C 17,8 C 94 % 0 lf 1013,5 hPa 0,0 l/m 2 min 0 min 409 W/m 8,4 km/h (2 Bft) 97,87 %
05.08.2017 12:58 16,7 C 21,7 C 17,8 C 94 % 0 lf 1013,5 hPa 0,0 l/m 2 min 0 min 634 W/m 14,6 km/h (3 Bft) 97,87 %
05.08.2017 13:00 16,8 C 21,7 C 17,8 C 94 % 0 lf 1013,6 hPa 0,0 l/m 2 min 0 min 437 W/m 16,7 km/h (3 Bft) 100,00 %
05.08.2017 13:02 16,9 C 22,8 C 18,3 C 93 % 0 lf 1013,5 hPa 0,0 l/m 2 min 0 min 438 W/m 14,6 km/h (3 Bft) 100,00 %
05.08.2017 13:04 17,0 C 23,3 C 18,3 C 93 % 0 lf 1013,6 hPa 0,0 l/m 2 min 0 min 843 W/m 20,9 km/h (4 Bft) 100,00 %
05.08.2017 13:06 17,2 C 23,9 C 18,3 C 93 % 0 lf 1013,5 hPa 0,0 l/m 2 min 0 min 861 W/m 20,9 km/h (4 Bft) 95,74 %
05.08.2017 13:08 17,3 C 23,9 C 18,3 C 93 % 0 lf 1013,5 hPa 0,0 l/m 2 min 0 min 711 W/m 18,8 km/h (3 Bft) 95,74 %
05.08.2017 13:10 17,4 C 24,4 C 18,3 C 92 % 0 lf 1013,6 hPa 0,0 l/m 2 min 0 min 575 W/m 12,6 km/h (3 Bft) 100,00 %
05.08.2017 13:12 17,6 C 25,0 C 18,3 C 92 % 0 lf 1013,6 hPa 0,0 l/m 2 min 0 min 652 W/m 16,7 km/h (3 Bft) 95,74 %
05.08.2017 13:14 17,6 C 24,4 C 18,9 C 91 % 0 lf 1013,5 hPa 0,0 l/m 2 min 0 min 1030 W/m 18,8 km/h (3 Bft) 95,65 %
05.08.2017 13:16 17,7 C 23,9 C 18,3 C 91 % 0 lf 1013,4 hPa 0,0 l/m 2 min 0 min 727 W/m 14,6 km/h (3 Bft) 95,74 %
05.08.2017 13:18 17,8 C 26,7 C 18,9 C 90 % 0 lf 1013,5 hPa 0,0 l/m 2 min 0 min 564 W/m 12,6 km/h (3 Bft) 95,74 %
05.08.2017 13:20 18,1 C 28,3 C 19,4 C 91 % 0 lf 1013,5 hPa 0,0 l/m 2 min 0 min 1107 W/m 12,6 km/h (3 Bft) 95,74 %
05.08.2017 13:22 18,2 C 26,7 C 19,4 C 90 % 0 lf 1013,5 hPa 0,0 l/m 2 min 0 min 1107 W/m 14,6 km/h (3 Bft) 89,36 %
05.08.2017 13:24 18,3 C 26,7 C 18,9 C 90 % 0 lf 1013,5 hPa 0,0 l/m 2 min 0 min 940 W/m 12,6 km/h (3 Bft) 93,62 %
05.08.2017 13:26 18,4 C 26,7 C 19,4 C 89 % 0 lf 1013,4 hPa 0,0 l/m 2 min 0 min 495 W/m 10,5 km/h (2 Bft) 91,30 %
05.08.2017 13:28 18,7 C 26,7 C 19,4 C 89 % 0 lf 1013,4 hPa 0,0 l/m 2 min 0 min 489 W/m 14,6 km/h (3 Bft) 95,74 %
05.08.2017 13:30 18,7 C 26,1 C 19,4 C 88 % 0 lf 1013,3 hPa 0,0 l/m 2 min 0 min 522 W/m 16,7 km/h (3 Bft) 91,49 %
05.08.2017 13:32 18,9 C 27,8 C 20,0 C 88 % 0 lf 1013,4 hPa 0,0 l/m 2 min 0 min 522 W/m 16,7 km/h (3 Bft) 91,49 %
05.08.2017 13:34 19,1 C 26,7 C 19,4 C 87 % 0 lf 1013,3 hPa 0,0 l/m 2 min 0 min 400 W/m 14,6 km/h (3 Bft) 95,74 %
05.08.2017 13:36 19,1 C 23,3 C 18,9 C 85 % 0 lf 1013,3 hPa 0,0 l/m 0 min 0 min 279 W/m 18,8 km/h (3 Bft) 89,13 %
05.08.2017 13:38 19,0 C 21,7 C 18,3 C 84 % 0 lf 1013,4 hPa 0,0 l/m 0 min 0 min 276 W/m 20,9 km/h (4 Bft) 93,62 %
05.08.2017 13:40 19,0 C 21,1 C 17,8 C 84 % 0 lf 1013,4 hPa 0,0 l/m 0 min 0 min 242 W/m 18,8 km/h (3 Bft) 89,36 %
05.08.2017 13:42 19,0 C 21,1 C 17,8 C 84 % 0 lf 1013,5 hPa 0,0 l/m 0 min 0 min 241 W/m 18,8 km/h (3 Bft) 91,49 %
05.08.2017 13:44 19,0 C 23,9 C 18,9 C 84 % 0 lf 1013,5 hPa 0,0 l/m 0 min 0 min 271 W/m 12,6 km/h (3 Bft) 91,49 %
05.08.2017 13:46 19,0 C 22,2 C 18,3 C 84 % 0 lf 1013,5 hPa 0,0 l/m 0 min 0 min 271 W/m 18,8 km/h (3 Bft) 91,49 %
05.08.2017 13:48 19,0 C 21,7 C 18,3 C 84 % 0 lf 1013,5 hPa 0,0 l/m 0 min 0 min 256 W/m 12,6 km/h (3 Bft) 89,13 %
05.08.2017 13:50 19,0 C 23,9 C 18,9 C 83 % 0 lf 1013,5 hPa 0,0 l/m 0 min 0 min 345 W/m 12,6 km/h (3 Bft) 93,62 %
05.08.2017 13:52 19,1 C 25,0 C 18,9 C 85 % 0 lf 1013,5 hPa 0,0 l/m 2 min 0 min 1079 W/m 12,6 km/h (3 Bft) 93,62 %
05.08.2017 13:54 19,1 C 23,9 C 18,9 C 84 % 0 lf 1013,5 hPa 0,0 l/m 2 min 0 min 443 W/m 16,7 km/h (3 Bft) 93,62 %
05.08.2017 13:56 19,2 C 22,8 C 18,3 C 84 % 0 lf 1013,5 hPa 0,0 l/m 0 min 0 min 216 W/m 14,6 km/h (3 Bft) 91,49 %
05.08.2017 13:58 19,1 C 22,2 C 18,3 C 83 % 0 lf 1013,5 hPa 0,0 l/m 0 min 0 min 280 W/m 20,9 km/h (4 Bft) 91,49 %
05.08.2017 14:00 19,1 C 22,2 C 18,3 C 83 % 0 lf 1013,5 hPa 0,0 l/m 0 min 0 min 325 W/m 23,0 km/h (4 Bft) 93,48 %
05.08.2017 14:02 19,1 C 23,3 C 18,3 C 82 % 0 lf 1013,5 hPa 0,0 l/m 0 min 0 min 325 W/m 16,7 km/h (3 Bft) 89,36 %
05.08.2017 14:04 19,1 C 23,3 C 18,9 C 82 % 0 lf 1013,5 hPa 0,0 l/m 0 min 0 min 325 W/m 23,0 km/h (4 Bft) 93,62 %
05.08.2017 14:06 19,1 C 22,8 C 18,3 C 82 % 0 lf 1013,5 hPa 0,0 l/m 0 min 0 min 325 W/m 16,7 km/h (3 Bft) 91,49 %
05.08.2017 14:08 19,1 C 21,1 C 17,8 C 81 % 0 lf 1013,6 hPa 0,0 l/m 0 min 0 min 274 W/m 25,1 km/h (4 Bft) 97,87 %
05.08.2017 14:10 19,1 C 21,1 C 18,3 C 81 % 0 lf 1013,6 hPa 0,0 l/m 0 min 0 min 281 W/m 12,6 km/h (3 Bft) 95,74 %
05.08.2017 14:12 19,1 C 22,8 C 18,9 C 82 % 0 lf 1013,6 hPa 0,0 l/m 0 min 0 min 338 W/m 12,6 km/h (3 Bft) 93,48 %
05.08.2017 14:14 19,1 C 24,4 C 20,0 C 83 % 0 lf 1013,5 hPa 0,0 l/m 0 min 0 min 338 W/m 10,5 km/h (2 Bft) 97,87 %
05.08.2017 14:16 19,2 C 25,0 C 20,0 C 83 % 0 lf 1013,5 hPa 0,0 l/m 0 min 0 min 338 W/m 10,5 km/h (2 Bft) 95,74 %
05.08.2017 14:18 19,3 C 23,3 C 19,4 C 83 % 0 lf 1013,5 hPa 0,0 l/m 0 min 0 min 311 W/m 20,9 km/h (4 Bft) 95,74 %
05.08.2017 14:20 19,4 C 22,8 C 19,4 C 82 % 0 lf 1013,5 hPa 0,0 l/m 0 min 0 min 368 W/m 20,9 km/h (4 Bft) 95,74 %
05.08.2017 14:22 19,4 C 22,2 C 19,4 C 81 % 0 lf 1013,5 hPa 0,0 l/m 0 min 0 min 340 W/m 18,8 km/h (3 Bft) 95,74 %
05.08.2017 14:24 19,4 C 22,2 C 18,9 C 81 % 0 lf 1013,6 hPa 0,0 l/m 0 min 0 min 276 W/m 27,2 km/h (4 Bft) 97,83 %
05.08.2017 14:26 19,4 C 23,9 C 20,0 C 81 % 0 lf 1013,6 hPa 0,0 l/m 2 min 0 min 681 W/m 27,2 km/h (4 Bft) 100,00 %
05.08.2017 14:28 19,5 C 25,0 C 19,4 C 81 % 0 lf 1013,5 hPa 0,0 l/m 2 min 0 min 1027 W/m 25,1 km/h (4 Bft) 100,00 %
05.08.2017 14:30 19,6 C 27,2 C 20,0 C 82 % 0 lf 1013,5 hPa 0,0 l/m 2 min 0 min 971 W/m 16,7 km/h (3 Bft) 95,74 %
05.08.2017 14:32 19,8 C 27,8 C 20,6 C 82 % 0 lf 1013,5 hPa 0,0 l/m 2 min 0 min 949 W/m 16,7 km/h (3 Bft) 97,87 %
05.08.2017 14:34 19,9 C 26,7 C 21,1 C 81 % 0 lf 1013,5 hPa 0,0 l/m 2 min 0 min 949 W/m 23,0 km/h (4 Bft) 100,00 %
05.08.2017 14:36 20,1 C 28,9 C 23,3 C 82 % 0 lf 1013,5 hPa 0,0 l/m 2 min 0 min 949 W/m 18,8 km/h (3 Bft) 100,00 %
05.08.2017 14:38 20,2 C 29,4 C 24,4 C 81 % 0 lf 1013,5 hPa 0,0 l/m 2 min 0 min 837 W/m 14,6 km/h (3 Bft) 97,87 %
05.08.2017 14:40 20,4 C 28,9 C 24,4 C 81 % 0 lf 1013,4 hPa 0,0 l/m 2 min 0 min 836 W/m 16,7 km/h (3 Bft) 100,00 %
05.08.2017 14:42 20,4 C 25,6 C 23,3 C 79 % 0 lf 1013,5 hPa 0,0 l/m 2 min 0 min 532 W/m 20,9 km/h (4 Bft) 97,87 %
05.08.2017 14:44 20,4 C 24,4 C 22,8 C 77 % 0 lf 1013,5 hPa 0,0 l/m 2 min 0 min 404 W/m 20,9 km/h (4 Bft) 97,87 %
05.08.2017 14:46 20,4 C 24,4 C 22,8 C 77 % 0 lf 1013,5 hPa 0,0 l/m 2 min 0 min 390 W/m 18,8 km/h (3 Bft) 97,87 %
05.08.2017 14:48 20,5 C 25,0 C 23,3 C 77 % 0 lf 1013,6 hPa 0,0 l/m 2 min 0 min 400 W/m 23,0 km/h (4 Bft) 97,83 %
05.08.2017 14:50 20,6 C 26,7 C 25,6 C 78 % 0 lf 1013,6 hPa 0,0 l/m 2 min 0 min 717 W/m 23,0 km/h (4 Bft) 100,00 %
05.08.2017 14:52 20,6 C 25,6 C 24,4 C 77 % 0 lf 1013,6 hPa 0,0 l/m 2 min 0 min 958 W/m 29,3 km/h (5 Bft) 100,00 %
05.08.2017 14:54 20,7 C 25,0 C 23,9 C 77 % 0 lf 1013,6 hPa 0,0 l/m 2 min 0 min 485 W/m 25,1 km/h (4 Bft) 100,00 %
05.08.2017 14:56 20,6 C 23,3 C 22,8 C 76 % 0 lf 1013,6 hPa 0,0 l/m 0 min 0 min 311 W/m 27,2 km/h (4 Bft) 100,00 %
05.08.2017 14:58 20,6 C 22,2 C 21,7 C 76 % 0 lf 1013,6 hPa 0,0 l/m 0 min 0 min 244 W/m 18,8 km/h (3 Bft) 95,74 %
05.08.2017 15:00 20,4 C 22,2 C 21,7 C 76 % 0 lf 1013,6 hPa 0,0 l/m 0 min 0 min 357 W/m 23,0 km/h (4 Bft) 100,00 %
05.08.2017 15:02 20,4 C 23,3 C 22,8 C 77 % 0 lf 1013,7 hPa 0,0 l/m 2 min 0 min 446 W/m 18,8 km/h (3 Bft) 100,00 %
05.08.2017 15:04 20,4 C 22,8 C 22,8 C 77 % 0 lf 1013,7 hPa 0,0 l/m 0 min 0 min 376 W/m 20,9 km/h (4 Bft) 97,87 %
05.08.2017 15:06 20,4 C 22,8 C 22,2 C 78 % 0 lf 1013,8 hPa 0,0 l/m 0 min 0 min 350 W/m 29,3 km/h (5 Bft) 97,87 %
05.08.2017 15:08 20,4 C 23,9 C 23,3 C 78 % 0 lf 1013,9 hPa 0,0 l/m 2 min 0 min 468 W/m 20,9 km/h (4 Bft) 100,00 %
05.08.2017 15:10 20,4 C 24,4 C 24,4 C 78 % 0 lf 1013,9 hPa 0,0 l/m 2 min 0 min 492 W/m 23,0 km/h (4 Bft) 95,74 %
05.08.2017 15:12 20,4 C 25,0 C 25,0 C 78 % 0 lf 1013,9 hPa 0,0 l/m 2 min 0 min 743 W/m 23,0 km/h (4 Bft) 100,00 %
05.08.2017 15:14 20,5 C 26,7 C 26,1 C 78 % 0 lf 1013,9 hPa 0,0 l/m 2 min 0 min 874 W/m 27,2 km/h (4 Bft) 100,00 %
05.08.2017 15:16 20,6 C 27,2 C 26,7 C 78 % 0 lf 1013,9 hPa 0,0 l/m 2 min 0 min 899 W/m 29,3 km/h (5 Bft) 100,00 %
05.08.2017 15:18 20,7 C 26,7 C 26,1 C 78 % 0 lf 1013,9 hPa 0,0 l/m 2 min 0 min 758 W/m 18,8 km/h (3 Bft) 100,00 %
05.08.2017 15:20 20,7 C 26,1 C 27,2 C 78 % 0 lf 1013,9 hPa 0,0 l/m 2 min 0 min 865 W/m 20,9 km/h (4 Bft) 100,00 %
05.08.2017 15:22 20,8 C 26,1 C 26,7 C 78 % 0 lf 1013,9 hPa 0,0 l/m 2 min 0 min 1011 W/m 18,8 km/h (3 Bft) 100,00 %
05.08.2017 15:24 20,9 C 25,0 C 25,6 C 78 % 0 lf 1013,9 hPa 0,0 l/m 2 min 0 min 382 W/m 20,9 km/h (4 Bft) 100,00 %
05.08.2017 15:26 20,9 C 24,4 C 24,4 C 77 % 0 lf 1013,9 hPa 0,0 l/m 2 min 0 min 375 W/m 18,8 km/h (3 Bft) 100,00 %
05.08.2017 15:28 20,9 C 22,8 C 22,8 C 76 % 0 lf 1013,9 hPa 0,0 l/m 0 min 0 min 308 W/m 18,8 km/h (3 Bft) 97,87 %
05.08.2017 15:30 20,8 C 22,8 C 22,2 C 76 % 0 lf 1013,9 hPa 0,0 l/m 2 min 0 min 491 W/m 16,7 km/h (3 Bft) 97,87 %
05.08.2017 15:32 20,8 C 22,8 C 22,2 C 77 % 0 lf 1014,0 hPa 0,0 l/m 2 min 0 min 614 W/m 18,8 km/h (3 Bft) 100,00 %
05.08.2017 15:34 20,8 C 24,4 C 23,9 C 77 % 0 lf 1013,9 hPa 0,0 l/m 2 min 0 min 661 W/m 20,9 km/h (4 Bft) 100,00 %
05.08.2017 15:36 20,8 C 26,1 C 26,1 C 78 % 0 lf 1013,9 hPa 0,0 l/m 2 min 0 min 779 W/m 25,1 km/h (4 Bft) 97,87 %
05.08.2017 15:38 20,9 C 25,6 C 25,6 C 77 % 0 lf 1013,9 hPa 0,0 l/m 2 min 0 min 996 W/m 27,2 km/h (4 Bft) 97,87 %
05.08.2017 15:40 20,9 C 23,9 C 24,4 C 76 % 0 lf 1013,9 hPa 0,0 l/m 2 min 0 min 983 W/m 27,2 km/h (4 Bft) 95,65 %
05.08.2017 15:42 20,9 C 25,0 C 25,6 C 76 % 0 lf 1013,8 hPa 0,0 l/m 2 min 0 min 1019 W/m 23,0 km/h (4 Bft) 95,74 %
05.08.2017 15:44 21,0 C 26,7 C 27,8 C 77 % 0 lf 1013,9 hPa 0,0 l/m 2 min 0 min 768 W/m 14,6 km/h (3 Bft) 100,00 %
05.08.2017 15:46 21,1 C 27,8 C 28,9 C 77 % 0 lf 1013,9 hPa 0,0 l/m 2 min 0 min 765 W/m 20,9 km/h (4 Bft) 97,83 %
05.08.2017 15:48 21,2 C 25,6 C 27,2 C 77 % 0 lf 1013,9 hPa 0,0 l/m 2 min 0 min 922 W/m 23,0 km/h (4 Bft) 97,87 %
05.08.2017 15:50 21,2 C 24,4 C 25,6 C 76 % 0 lf 1013,9 hPa 0,0 l/m 2 min 0 min 609 W/m 14,6 km/h (3 Bft) 93,62 %
05.08.2017 15:52 21,3 C 23,3 C 24,4 C 76 % 0 lf 1014,0 hPa 0,0 l/m 2 min 0 min 567 W/m 18,8 km/h (3 Bft) 95,74 %
05.08.2017 15:54 21,2 C 22,8 C 23,3 C 74 % 0 lf 1013,9 hPa 0,0 l/m 2 min 0 min 664 W/m 25,1 km/h (4 Bft) 95,74 %
05.08.2017 15:56 21,2 C 22,8 C 23,3 C 75 % 0 lf 1014,0 hPa 0,0 l/m 2 min 0 min 698 W/m 16,7 km/h (3 Bft) 97,87 %
05.08.2017 15:58 21,2 C 22,2 C 22,8 C 74 % 0 lf 1014,0 hPa 0,0 l/m 2 min 0 min 643 W/m 20,9 km/h (4 Bft) 95,65 %
05.08.2017 16:00 21,2 C 22,8 C 22,8 C 75 % 0 lf 1014,0 hPa 0,0 l/m 2 min 0 min 656 W/m 20,9 km/h (4 Bft) 93,62 %
05.08.2017 16:02 21,2 C 22,8 C 22,8 C 76 % 0 lf 1014,0 hPa 0,0 l/m 2 min 0 min 618 W/m 18,8 km/h (3 Bft) 95,74 %
05.08.2017 16:04 21,1 C 22,2 C 22,2 C 76 % 0 lf 1014,0 hPa 0,0 l/m 2 min 0 min 557 W/m 18,8 km/h (3 Bft) 93,62 %
05.08.2017 16:06 21,1 C 21,7 C 21,7 C 75 % 0 lf 1014,0 hPa 0,0 l/m 2 min 0 min 510 W/m 18,8 km/h (3 Bft) 95,74 %
05.08.2017 16:08 20,9 C 20,6 C 20,0 C 75 % 2 lf 1014,1 hPa 0,0 l/m 2 min 0 min 500 W/m 43,9 km/h (6 Bft) 95,92 %
05.08.2017 16:10 20,7 C 19,4 C 18,3 C 74 % 15 lf 1014,2 hPa 0,0 l/m 0 min 2 min 299 W/m 33,5 km/h (5 Bft) 95,74 %
05.08.2017 16:12 20,4 C 17,8 C 16,7 C 75 % 15 lf 1014,3 hPa 0,0 l/m 0 min 2 min 52 W/m 33,5 km/h (5 Bft) 95,74 %
05.08.2017 16:14 20,1 C 17,2 C 16,1 C 78 % 15 lf 1014,4 hPa 0,0 l/m 0 min 2 min 72 W/m 25,1 km/h (4 Bft) 95,74 %
05.08.2017 16:16 19,8 C 16,7 C 15,6 C 79 % 15 lf 1014,4 hPa 0,2 l/m 0 min 2 min 91 W/m 25,1 km/h (4 Bft) 91,30 %
05.08.2017 16:18 19,5 C 16,1 C 15,6 C 80 % 15 lf 1014,4 hPa 0,0 l/m 0 min 2 min 118 W/m 23,0 km/h (4 Bft) 93,62 %
05.08.2017 16:20 19,2 C 15,6 C 15,6 C 81 % 15 lf 1014,6 hPa 0,0 l/m 0 min 2 min 142 W/m 16,7 km/h (3 Bft) 91,49 %
05.08.2017 16:22 19,0 C 15,6 C 15,6 C 82 % 15 lf 1014,5 hPa 0,0 l/m 0 min 2 min 145 W/m 20,9 km/h (4 Bft) 91,43 %
05.08.2017 16:24 18,7 C 16,1 C 15,6 C 82 % 15 lf 1014,4 hPa 0,0 l/m 0 min 2 min 133 W/m 18,8 km/h (3 Bft) 93,62 %
05.08.2017 16:26 18,6 C 16,1 C 15,6 C 83 % 15 lf 1014,5 hPa 0,0 l/m 0 min 2 min 123 W/m 14,6 km/h (3 Bft) 95,74 %
05.08.2017 16:28 18,4 C 16,1 C 15,6 C 84 % 15 lf 1014,5 hPa 0,0 l/m 0 min 2 min 107 W/m 16,7 km/h (3 Bft) 95,65 %
05.08.2017 16:30 18,2 C 15,6 C 15,6 C 85 % 15 lf 1014,5 hPa 0,2 l/m 0 min 2 min 92 W/m 14,6 km/h (3 Bft) 97,87 %
05.08.2017 16:32 18,1 C 15,6 C 15,6 C 85 % 15 lf 1014,5 hPa 0,0 l/m 0 min 2 min 86 W/m 10,5 km/h (2 Bft) 95,74 %
05.08.2017 16:34 18,0 C 16,1 C 15,6 C 86 % 15 lf 1014,6 hPa 0,0 l/m 0 min 2 min 90 W/m 8,4 km/h (2 Bft) 95,74 %
05.08.2017 16:36 17,9 C 16,1 C 15,6 C 86 % 15 lf 1014,6 hPa 0,0 l/m 0 min 0 min 102 W/m 10,5 km/h (2 Bft) 93,62 %
05.08.2017 16:38 17,8 C 15,6 C 15,6 C 87 % 15 lf 1014,6 hPa 0,0 l/m 0 min 2 min 111 W/m 14,6 km/h (3 Bft) 100,00 %
05.08.2017 16:40 17,7 C 15,6 C 15,6 C 87 % 15 lf 1014,7 hPa 0,0 l/m 0 min 0 min 115 W/m 12,6 km/h (3 Bft) 97,83 %
05.08.2017 16:42 17,6 C 15,6 C 15,6 C 87 % 15 lf 1014,7 hPa 0,0 l/m 0 min 0 min 122 W/m 12,6 km/h (3 Bft) 97,87 %
05.08.2017 16:44 17,5 C 16,1 C 16,1 C 88 % 15 lf 1014,7 hPa 0,0 l/m 0 min 0 min 132 W/m 8,4 km/h (2 Bft) 95,74 %
05.08.2017 16:46 17,4 C 16,1 C 16,1 C 88 % 15 lf 1014,7 hPa 0,0 l/m 0 min 0 min 137 W/m 12,6 km/h (3 Bft) 95,74 %
05.08.2017 16:48 17,4 C 16,1 C 16,1 C 89 % 15 lf 1014,7 hPa 0,0 l/m 0 min 0 min 136 W/m 20,9 km/h (4 Bft) 95,74 %
05.08.2017 16:50 17,3 C 16,1 C 16,1 C 89 % 15 lf 1014,7 hPa 0,0 l/m 0 min 0 min 141 W/m 16,7 km/h (3 Bft) 93,10 %
05.08.2017 16:52 17,3 C 16,1 C 16,1 C 89 % 15 lf 1014,7 hPa 0,0 l/m 0 min 0 min 141 W/m 12,6 km/h (3 Bft) 97,14 %
05.08.2017 16:54 17,3 C 16,7 C 16,1 C 90 % 15 lf 1014,8 hPa 0,0 l/m 0 min 0 min 139 W/m 10,5 km/h (2 Bft) 93,62 %
05.08.2017 16:56 17,3 C 16,7 C 16,1 C 90 % 15 lf 1014,8 hPa 0,0 l/m 0 min 0 min 139 W/m 12,6 km/h (3 Bft) 89,36 %
05.08.2017 16:58 17,3 C 16,7 C 16,1 C 90 % 15 lf 1014,8 hPa 0,0 l/m 0 min 0 min 142 W/m 14,6 km/h (3 Bft) 95,74 %
05.08.2017 17:00 17,3 C 16,7 C 16,7 C 90 % 15 lf 1014,7 hPa 0,0 l/m 0 min 0 min 146 W/m 10,5 km/h (2 Bft) 91,49 %
05.08.2017 17:02 17,3 C 16,7 C 16,1 C 91 % 15 lf 1014,7 hPa 0,0 l/m 0 min 0 min 142 W/m 10,5 km/h (2 Bft) 93,62 %
05.08.2017 17:04 17,3 C 16,7 C 16,1 C 91 % 15 lf 1014,7 hPa 0,0 l/m 0 min 0 min 135 W/m 12,6 km/h (3 Bft) 95,65 %
05.08.2017 17:06 17,3 C 17,2 C 16,1 C 91 % 15 lf 1014,7 hPa 0,0 l/m 0 min 0 min 144 W/m 10,5 km/h (2 Bft) 97,87 %
05.08.2017 17:08 17,3 C 17,2 C 16,7 C 91 % 15 lf 1014,7 hPa 0,0 l/m 0 min 0 min 155 W/m 12,6 km/h (3 Bft) 95,74 %
05.08.2017 17:10 17,2 C 17,2 C 16,7 C 91 % 14 lf 1014,7 hPa 0,0 l/m 0 min 0 min 162 W/m 6,3 km/h (2 Bft) 95,74 %
05.08.2017 17:12 17,3 C 17,8 C 16,7 C 92 % 13 lf 1014,7 hPa 0,0 l/m 0 min 0 min 167 W/m 6,3 km/h (2 Bft) 97,87 %
05.08.2017 17:14 17,3 C 17,8 C 16,7 C 92 % 12 lf 1014,8 hPa 0,0 l/m 0 min 0 min 173 W/m 12,6 km/h (3 Bft) 91,49 %
05.08.2017 17:16 17,3 C 18,3 C 16,7 C 92 % 10 lf 1014,8 hPa 0,0 l/m 0 min 0 min 177 W/m 10,5 km/h (2 Bft) 97,83 %
05.08.2017 17:18 17,3 C 18,3 C 16,7 C 92 % 8 lf 1014,8 hPa 0,0 l/m 0 min 0 min 180 W/m 8,4 km/h (2 Bft) 97,87 %
05.08.2017 17:20 17,3 C 18,3 C 16,7 C 92 % 4 lf 1014,9 hPa 0,0 l/m 0 min 0 min 180 W/m 14,6 km/h (3 Bft) 94,92 %
05.08.2017 17:22 17,3 C 18,9 C 17,2 C 92 % 3 lf 1014,9 hPa 0,0 l/m 0 min 0 min 178 W/m 12,6 km/h (3 Bft) 100,00 %
05.08.2017 17:24 17,4 C 18,9 C 17,2 C 92 % 2 lf 1014,9 hPa 0,0 l/m 0 min 0 min 180 W/m 8,4 km/h (2 Bft) 95,74 %
05.08.2017 17:26 17,4 C 18,9 C 17,2 C 92 % 1 lf 1015,0 hPa 0,0 l/m 0 min 0 min 182 W/m 6,3 km/h (2 Bft) 97,87 %
05.08.2017 17:28 17,4 C 18,9 C 17,2 C 92 % 1 lf 1015,0 hPa 0,0 l/m 0 min 0 min 179 W/m 8,4 km/h (2 Bft) 97,83 %
05.08.2017 17:30 17,4 C 18,9 C 17,2 C 92 % 1 lf 1015,0 hPa 0,0 l/m 0 min 2 min 180 W/m 6,3 km/h (2 Bft) 97,87 %
05.08.2017 17:32 17,5 C 18,9 C 17,2 C 92 % 0 lf 1015,0 hPa 0,0 l/m 0 min 2 min 181 W/m 10,5 km/h (2 Bft) 95,74 %
05.08.2017 17:34 17,5 C 18,9 C 17,2 C 92 % 0 lf 1015,1 hPa 0,0 l/m 0 min 0 min 179 W/m 12,6 km/h (3 Bft) 93,62 %
05.08.2017 17:36 17,6 C 18,9 C 17,2 C 93 % 0 lf 1015,1 hPa 0,0 l/m 0 min 0 min 182 W/m 8,4 km/h (2 Bft) 100,00 %
05.08.2017 17:38 17,6 C 18,9 C 17,2 C 93 % 1 lf 1015,1 hPa 0,0 l/m 0 min 2 min 184 W/m 6,3 km/h (2 Bft) 100,00 %
05.08.2017 17:40 17,6 C 18,9 C 17,2 C 93 % 1 lf 1015,1 hPa 0,0 l/m 0 min 2 min 197 W/m 8,4 km/h (2 Bft) 100,00 %
05.08.2017 17:42 17,7 C 18,9 C 17,2 C 93 % 1 lf 1015,1 hPa 0,0 l/m 0 min 2 min 216 W/m 8,4 km/h (2 Bft) 100,00 %
05.08.2017 17:44 17,7 C 19,4 C 17,2 C 93 % 0 lf 1015,1 hPa 0,0 l/m 0 min 2 min 232 W/m 8,4 km/h (2 Bft) 95,74 %
05.08.2017 17:46 17,8 C 19,4 C 17,8 C 93 % 0 lf 1015,1 hPa 0,0 l/m 2 min 0 min 262 W/m 8,4 km/h (2 Bft) 97,87 %
05.08.2017 17:48 17,8 C 19,4 C 17,8 C 93 % 0 lf 1015,1 hPa 0,0 l/m 2 min 0 min 313 W/m 10,5 km/h (2 Bft) 100,00 %
05.08.2017 17:50 17,8 C 20,0 C 17,8 C 93 % 0 lf 1015,2 hPa 0,0 l/m 2 min 0 min 347 W/m 6,3 km/h (2 Bft) 100,00 %
05.08.2017 17:52 17,9 C 20,6 C 18,3 C 93 % 0 lf 1015,2 hPa 0,0 l/m 2 min 0 min 350 W/m 12,6 km/h (3 Bft) 97,14 %
05.08.2017 17:54 17,9 C 20,6 C 17,8 C 93 % 0 lf 1015,0 hPa 0,0 l/m 2 min 0 min 343 W/m 12,6 km/h (3 Bft) 97,87 %
05.08.2017 17:56 18,0 C 20,6 C 17,8 C 93 % 0 lf 1015,0 hPa 0,0 l/m 2 min 0 min 284 W/m 6,3 km/h (2 Bft) 93,62 %
05.08.2017 17:58 18,1 C 20,6 C 18,3 C 93 % 0 lf 1015,1 hPa 0,0 l/m 2 min 0 min 295 W/m 6,3 km/h (2 Bft) 97,87 %
05.08.2017 18:00 18,1 C 20,6 C 17,8 C 93 % 0 lf 1015,1 hPa 0,0 l/m 0 min 0 min 214 W/m 12,6 km/h (3 Bft) 97,87 %
05.08.2017 18:02 18,2 C 20,6 C 17,8 C 93 % 0 lf 1015,1 hPa 0,0 l/m 0 min 0 min 165 W/m 12,6 km/h (3 Bft) 95,65 %
05.08.2017 18:04 18,2 C 20,0 C 17,8 C 92 % 0 lf 1015,2 hPa 0,0 l/m 0 min 0 min 155 W/m 10,5 km/h (2 Bft) 97,87 %
05.08.2017 18:08 18,2 C 20,0 C 17,8 C 92 % 0 lf 1015,2 hPa 0,0 l/m 0 min 0 min 173 W/m 12,6 km/h (3 Bft) 98,00 %
05.08.2017 18:10 18,2 C 19,4 C 17,8 C 92 % 0 lf 1015,2 hPa 0,0 l/m 0 min 0 min 155 W/m 12,6 km/h (3 Bft) 97,87 %
05.08.2017 18:12 18,3 C 19,4 C 17,8 C 91 % 0 lf 1015,3 hPa 0,0 l/m 0 min 0 min 140 W/m 16,7 km/h (3 Bft) 95,65 %
05.08.2017 18:14 18,3 C 19,4 C 17,8 C 91 % 0 lf 1015,2 hPa 0,0 l/m 0 min 0 min 146 W/m 12,6 km/h (3 Bft) 97,87 %
05.08.2017 18:16 18,3 C 19,4 C 17,8 C 91 % 0 lf 1015,2 hPa 0,0 l/m 0 min 0 min 150 W/m 10,5 km/h (2 Bft) 97,56 %
05.08.2017 18:18 18,3 C 19,4 C 17,8 C 91 % 0 lf 1015,2 hPa 0,0 l/m 0 min 0 min 169 W/m 8,4 km/h (2 Bft) 96,23 %
05.08.2017 18:20 18,3 C 19,4 C 18,3 C 91 % 0 lf 1015,3 hPa 0,0 l/m 0 min 0 min 184 W/m 10,5 km/h (2 Bft) 93,62 %
05.08.2017 18:22 18,4 C 20,0 C 18,3 C 91 % 0 lf 1015,2 hPa 0,0 l/m 0 min 0 min 171 W/m 14,6 km/h (3 Bft) 93,62 %
05.08.2017 18:24 18,4 C 20,0 C 18,3 C 90 % 0 lf 1015,3 hPa 0,0 l/m 0 min 0 min 144 W/m 14,6 km/h (3 Bft) 93,62 %
05.08.2017 18:26 18,4 C 20,0 C 18,3 C 90 % 0 lf 1015,3 hPa 0,0 l/m 0 min 0 min 125 W/m 12,6 km/h (3 Bft) 95,65 %
05.08.2017 18:28 18,3 C 19,4 C 18,3 C 90 % 0 lf 1015,4 hPa 0,0 l/m 0 min 0 min 118 W/m 14,6 km/h (3 Bft) 95,74 %
05.08.2017 18:30 18,4 C 19,4 C 18,3 C 89 % 0 lf 1015,4 hPa 0,0 l/m 0 min 0 min 109 W/m 4,2 km/h (1 Bft) 95,74 %
05.08.2017 18:32 18,4 C 19,4 C 17,8 C 89 % 0 lf 1015,4 hPa 0,0 l/m 0 min 0 min 105 W/m 6,3 km/h (2 Bft) 97,87 %
05.08.2017 18:34 18,4 C 19,4 C 18,3 C 89 % 0 lf 1015,4 hPa 0,0 l/m 0 min 0 min 110 W/m 4,2 km/h (1 Bft) 97,87 %
05.08.2017 18:36 18,4 C 19,4 C 18,3 C 89 % 0 lf 1015,4 hPa 0,0 l/m 0 min 0 min 123 W/m 8,4 km/h (2 Bft) 93,62 %
05.08.2017 18:38 18,5 C 20,0 C 18,3 C 89 % 0 lf 1015,4 hPa 0,0 l/m 0 min 0 min 128 W/m 8,4 km/h (2 Bft) 95,65 %
05.08.2017 18:40 18,5 C 19,4 C 18,3 C 89 % 0 lf 1015,5 hPa 0,0 l/m 0 min 0 min 115 W/m 12,6 km/h (3 Bft) 95,74 %
05.08.2017 18:42 18,5 C 19,4 C 17,8 C 88 % 0 lf 1015,5 hPa 0,0 l/m 0 min 0 min 96 W/m 10,5 km/h (2 Bft) 97,87 %
05.08.2017 18:44 18,5 C 19,4 C 17,8 C 88 % 0 lf 1015,4 hPa 0,0 l/m 0 min 0 min 91 W/m 10,5 km/h (2 Bft) 97,87 %
05.08.2017 18:46 18,6 C 19,4 C 17,8 C 88 % 0 lf 1015,5 hPa 0,0 l/m 0 min 0 min 99 W/m 8,4 km/h (2 Bft) 97,87 %
05.08.2017 18:48 18,6 C 18,9 C 17,8 C 88 % 0 lf 1015,5 hPa 0,0 l/m 0 min 0 min 123 W/m 6,3 km/h (2 Bft) 97,87 %
05.08.2017 18:50 18,6 C 19,4 C 17,8 C 88 % 0 lf 1015,5 hPa 0,0 l/m 0 min 0 min 149 W/m 6,3 km/h (2 Bft) 97,83 %
05.08.2017 18:52 18,6 C 19,4 C 18,3 C 88 % 0 lf 1015,5 hPa 0,0 l/m 0 min 0 min 166 W/m 8,4 km/h (2 Bft) 93,62 %
05.08.2017 18:54 18,6 C 19,4 C 18,3 C 88 % 0 lf 1015,6 hPa 0,0 l/m 2 min 0 min 174 W/m 6,3 km/h (2 Bft) 95,74 %
05.08.2017 18:56 18,6 C 19,4 C 18,3 C 87 % 0 lf 1015,6 hPa 0,0 l/m 2 min 0 min 202 W/m 8,4 km/h (2 Bft) 95,74 %
05.08.2017 18:58 18,6 C 19,4 C 18,3 C 87 % 0 lf 1015,6 hPa 0,0 l/m 2 min 0 min 199 W/m 8,4 km/h (2 Bft) 97,87 %
05.08.2017 19:00 18,6 C 19,4 C 18,9 C 87 % 0 lf 1015,7 hPa 0,0 l/m 2 min 0 min 200 W/m 10,5 km/h (2 Bft) 97,83 %
05.08.2017 19:02 18,6 C 19,4 C 18,9 C 87 % 0 lf 1015,7 hPa 0,0 l/m 2 min 0 min 196 W/m 8,4 km/h (2 Bft) 97,87 %
05.08.2017 19:04 18,7 C 20,0 C 18,9 C 87 % 0 lf 1015,7 hPa 0,0 l/m 2 min 0 min 173 W/m 4,2 km/h (1 Bft) 97,87 %
05.08.2017 19:06 18,7 C 20,0 C 18,9 C 87 % 0 lf 1015,7 hPa 0,0 l/m 2 min 0 min 197 W/m 6,3 km/h (2 Bft) 100,00 %
05.08.2017 19:08 18,7 C 20,0 C 18,9 C 87 % 0 lf 1015,7 hPa 0,0 l/m 2 min 0 min 335 W/m 10,5 km/h (2 Bft) 100,00 %
05.08.2017 19:10 18,7 C 20,0 C 18,9 C 87 % 0 lf 1015,7 hPa 0,0 l/m 2 min 0 min 341 W/m 8,4 km/h (2 Bft) 97,87 %
05.08.2017 19:12 18,8 C 20,0 C 19,4 C 87 % 0 lf 1015,7 hPa 0,0 l/m 2 min 0 min 349 W/m 8,4 km/h (2 Bft) 100,00 %
05.08.2017 19:14 18,8 C 20,0 C 19,4 C 87 % 0 lf 1015,7 hPa 0,0 l/m 2 min 0 min 197 W/m 8,4 km/h (2 Bft) 95,74 %
05.08.2017 19:16 18,8 C 20,0 C 18,9 C 86 % 0 lf 1015,7 hPa 0,0 l/m 2 min 0 min 244 W/m 10,5 km/h (2 Bft) 100,00 %
05.08.2017 19:18 18,8 C 19,4 C 18,9 C 86 % 0 lf 1015,7 hPa 0,0 l/m 2 min 0 min 235 W/m 12,6 km/h (3 Bft) 97,87 %
05.08.2017 19:20 18,8 C 19,4 C 18,3 C 86 % 0 lf 1015,7 hPa 0,0 l/m 0 min 0 min 128 W/m 10,5 km/h (2 Bft) 100,00 %
05.08.2017 19:22 18,8 C 19,4 C 18,3 C 85 % 0 lf 1015,7 hPa 0,0 l/m 2 min 0 min 211 W/m 8,4 km/h (2 Bft) 97,87 %
05.08.2017 19:24 18,9 C 19,4 C 18,3 C 85 % 0 lf 1015,6 hPa 0,0 l/m 2 min 0 min 180 W/m 6,3 km/h (2 Bft) 97,83 %
05.08.2017 19:26 18,9 C 19,4 C 18,3 C 85 % 0 lf 1015,7 hPa 0,0 l/m 0 min 0 min 120 W/m 8,4 km/h (2 Bft) 100,00 %
05.08.2017 19:28 18,9 C 19,4 C 18,3 C 85 % 0 lf 1015,7 hPa 0,0 l/m 2 min 0 min 128 W/m 12,6 km/h (3 Bft) 97,87 %
05.08.2017 19:30 18,9 C 19,4 C 17,8 C 85 % 0 lf 1015,8 hPa 0,0 l/m 2 min 0 min 186 W/m 8,4 km/h (2 Bft) 97,87 %
05.08.2017 19:32 18,9 C 19,4 C 17,8 C 85 % 0 lf 1015,8 hPa 0,0 l/m 2 min 0 min 179 W/m 6,3 km/h (2 Bft) 97,87 %
05.08.2017 19:34 18,9 C 19,4 C 17,8 C 85 % 0 lf 1015,9 hPa 0,0 l/m 2 min 0 min 171 W/m 8,4 km/h (2 Bft) 97,87 %
05.08.2017 19:36 18,9 C 18,9 C 17,8 C 85 % 0 lf 1015,9 hPa 0,0 l/m 0 min 0 min 94 W/m 6,3 km/h (2 Bft) 97,83 %
05.08.2017 19:38 18,9 C 18,9 C 17,8 C 85 % 0 lf 1015,9 hPa 0,0 l/m 2 min 0 min 144 W/m 4,2 km/h (1 Bft) 100,00 %
05.08.2017 19:40 18,9 C 18,9 C 17,2 C 85 % 0 lf 1016,0 hPa 0,0 l/m 0 min 0 min 87 W/m 8,4 km/h (2 Bft) 95,74 %
05.08.2017 19:42 18,8 C 18,9 C 17,2 C 85 % 0 lf 1016,0 hPa 0,0 l/m 2 min 0 min 122 W/m 6,3 km/h (2 Bft) 97,87 %
05.08.2017 19:44 18,8 C 18,9 C 17,2 C 85 % 0 lf 1016,1 hPa 0,0 l/m 2 min 0 min 149 W/m 8,4 km/h (2 Bft) 95,74 %
05.08.2017 19:46 18,8 C 18,9 C 17,2 C 84 % 0 lf 1016,1 hPa 0,0 l/m 2 min 0 min 144 W/m 12,6 km/h (3 Bft) 91,49 %
05.08.2017 19:48 18,7 C 18,9 C 17,2 C 84 % 0 lf 1016,1 hPa 0,0 l/m 2 min 0 min 139 W/m 12,6 km/h (3 Bft) 93,48 %
05.08.2017 19:50 18,7 C 18,3 C 17,2 C 83 % 0 lf 1016,2 hPa 0,0 l/m 2 min 0 min 125 W/m 8,4 km/h (2 Bft) 95,74 %
05.08.2017 19:52 18,7 C 18,3 C 17,2 C 83 % 0 lf 1016,2 hPa 0,0 l/m 2 min 0 min 105 W/m 12,6 km/h (3 Bft) 95,74 %
05.08.2017 19:54 18,6 C 18,3 C 17,2 C 83 % 0 lf 1016,3 hPa 0,0 l/m 2 min 0 min 106 W/m 12,6 km/h (3 Bft) 93,62 %
05.08.2017 19:56 18,6 C 18,3 C 16,7 C 82 % 0 lf 1016,3 hPa 0,0 l/m 0 min 0 min 74 W/m 14,6 km/h (3 Bft) 93,62 %
05.08.2017 19:58 18,6 C 18,3 C 16,7 C 82 % 0 lf 1016,3 hPa 0,0 l/m 0 min 0 min 56 W/m 10,5 km/h (2 Bft) 91,30 %
05.08.2017 20:00 18,5 C 17,8 C 16,7 C 82 % 0 lf 1016,4 hPa 0,0 l/m 0 min 0 min 52 W/m 8,4 km/h (2 Bft) 87,23 %
05.08.2017 20:02 18,5 C 17,8 C 16,7 C 82 % 0 lf 1016,4 hPa 0,0 l/m 0 min 0 min 53 W/m 8,4 km/h (2 Bft) 93,62 %
05.08.2017 20:04 18,4 C 17,8 C 16,7 C 82 % 0 lf 1016,4 hPa 0,0 l/m 0 min 0 min 48 W/m 8,4 km/h (2 Bft) 89,36 %
05.08.2017 20:06 18,4 C 17,8 C 16,1 C 82 % 0 lf 1016,3 hPa 0,0 l/m 0 min 0 min 42 W/m 8,4 km/h (2 Bft) 91,49 %
05.08.2017 20:08 18,4 C 17,2 C 16,1 C 82 % 0 lf 1016,4 hPa 0,0 l/m 0 min 0 min 34 W/m 6,3 km/h (2 Bft) 93,62 %
05.08.2017 20:10 18,4 C 17,2 C 16,1 C 82 % 0 lf 1016,4 hPa 0,0 l/m 0 min 0 min 32 W/m 6,3 km/h (2 Bft) 93,48 %
05.08.2017 20:12 18,3 C 17,2 C 16,1 C 82 % 0 lf 1016,4 hPa 0,0 l/m 0 min 0 min 31 W/m 6,3 km/h (2 Bft) 95,74 %
05.08.2017 20:14 18,3 C 17,2 C 16,1 C 82 % 0 lf 1016,4 hPa 0,0 l/m 0 min 0 min 28 W/m 6,3 km/h (2 Bft) 91,49 %
05.08.2017 20:16 18,3 C 17,2 C 15,6 C 82 % 0 lf 1016,5 hPa 0,0 l/m 0 min 0 min 26 W/m 4,2 km/h (1 Bft) 91,49 %
05.08.2017 20:18 18,2 C 16,7 C 15,6 C 82 % 0 lf 1016,5 hPa 0,0 l/m 0 min 0 min 32 W/m 6,3 km/h (2 Bft) 93,62 %
05.08.2017 20:20 18,2 C 16,7 C 15,6 C 82 % 0 lf 1016,4 hPa 0,0 l/m 0 min 0 min 32 W/m 4,2 km/h (1 Bft) 93,62 %
05.08.2017 20:22 18,2 C 16,7 C 16,1 C 83 % 0 lf 1016,4 hPa 0,0 l/m 0 min 0 min 35 W/m 6,3 km/h (2 Bft) 91,30 %
05.08.2017 20:24 18,2 C 16,7 C 16,1 C 83 % 0 lf 1016,4 hPa 0,0 l/m 0 min 0 min 36 W/m 6,3 km/h (2 Bft) 93,62 %
05.08.2017 20:26 18,1 C 16,7 C 16,1 C 83 % 0 lf 1016,5 hPa 0,0 l/m 0 min 0 min 39 W/m 6,3 km/h (2 Bft) 89,36 %
05.08.2017 20:28 18,1 C 17,2 C 16,1 C 83 % 0 lf 1016,4 hPa 0,0 l/m 0 min 0 min 42 W/m 8,4 km/h (2 Bft) 95,74 %
05.08.2017 20:30 18,1 C 17,2 C 16,1 C 83 % 0 lf 1016,5 hPa 0,0 l/m 0 min 0 min 42 W/m 8,4 km/h (2 Bft) 95,74 %
05.08.2017 20:32 18,1 C 16,7 C 16,1 C 83 % 0 lf 1016,5 hPa 0,0 l/m 0 min 0 min 40 W/m 4,2 km/h (1 Bft) 95,74 %
05.08.2017 20:34 18,0 C 17,2 C 16,1 C 83 % 0 lf 1016,5 hPa 0,0 l/m 0 min 0 min 35 W/m 4,2 km/h (1 Bft) 95,65 %
05.08.2017 20:36 18,0 C 16,7 C 16,1 C 83 % 0 lf 1016,5 hPa 0,0 l/m 0 min 0 min 32 W/m 4,2 km/h (1 Bft) 97,87 %
05.08.2017 20:38 17,9 C 16,7 C 16,1 C 84 % 0 lf 1016,6 hPa 0,0 l/m 0 min 0 min 31 W/m 8,4 km/h (2 Bft) 95,74 %
05.08.2017 20:40 17,9 C 16,7 C 16,1 C 84 % 0 lf 1016,6 hPa 0,0 l/m 0 min 0 min 30 W/m 6,3 km/h (2 Bft) 97,87 %
05.08.2017 20:42 17,9 C 16,7 C 16,1 C 84 % 0 lf 1016,5 hPa 0,0 l/m 0 min 0 min 30 W/m 6,3 km/h (2 Bft) 97,87 %
05.08.2017 20:44 17,9 C 16,7 C 16,1 C 84 % 0 lf 1016,5 hPa 0,0 l/m 2 min 0 min 30 W/m 6,3 km/h (2 Bft) 95,74 %
05.08.2017 20:46 17,8 C 16,7 C 16,1 C 84 % 0 lf 1016,5 hPa 0,0 l/m 2 min 0 min 30 W/m 4,2 km/h (1 Bft) 100,00 %
05.08.2017 20:48 17,8 C 16,7 C 16,1 C 85 % 0 lf 1016,5 hPa 0,0 l/m 2 min 0 min 32 W/m 6,3 km/h (2 Bft) 100,00 %
05.08.2017 20:50 17,8 C 16,7 C 16,1 C 85 % 0 lf 1016,5 hPa 0,0 l/m 2 min 0 min 33 W/m 8,4 km/h (2 Bft) 100,00 %
05.08.2017 20:52 17,8 C 16,7 C 16,1 C 85 % 0 lf 1016,5 hPa 0,0 l/m 2 min 0 min 28 W/m 8,4 km/h (2 Bft) 100,00 %
05.08.2017 20:54 17,7 C 16,7 C 16,1 C 85 % 0 lf 1016,5 hPa 0,0 l/m 2 min 0 min 32 W/m 8,4 km/h (2 Bft) 97,87 %
05.08.2017 20:56 17,7 C 16,7 C 16,1 C 85 % 0 lf 1016,4 hPa 0,0 l/m 2 min 0 min 26 W/m 8,4 km/h (2 Bft) 97,87 %
05.08.2017 20:58 17,7 C 16,7 C 16,1 C 85 % 0 lf 1016,5 hPa 0,0 l/m 2 min 0 min 27 W/m 4,2 km/h (1 Bft) 100,00 %
05.08.2017 21:00 17,7 C 16,7 C 16,1 C 85 % 0 lf 1016,5 hPa 0,0 l/m 2 min 0 min 26 W/m 6,3 km/h (2 Bft) 100,00 %
05.08.2017 21:02 17,7 C 16,7 C 16,1 C 85 % 0 lf 1016,5 hPa 0,0 l/m 0 min 0 min 16 W/m 2,1 km/h (1 Bft) 97,87 %
05.08.2017 21:04 17,7 C 16,7 C 16,1 C 86 % 0 lf 1016,5 hPa 0,0 l/m 0 min 0 min 11 W/m 2,1 km/h (1 Bft) 97,87 %
05.08.2017 21:06 17,6 C 16,7 C 15,6 C 86 % 0 lf 1016,4 hPa 0,0 l/m 0 min 0 min 6 W/m 4,2 km/h (1 Bft) 97,87 %
05.08.2017 21:08 17,6 C 16,7 C 15,6 C 86 % 0 lf 1016,5 hPa 0,0 l/m 0 min 0 min 1 W/m 6,3 km/h (2 Bft) 97,87 %
05.08.2017 21:10 17,6 C 16,7 C 15,6 C 86 % 0 lf 1016,4 hPa 0,0 l/m 0 min 0 min 344 W/m 2,1 km/h (1 Bft) 95,65 %
05.08.2017 21:12 17,6 C 16,7 C 15,6 C 86 % 0 lf 1016,6 hPa 0,0 l/m 0 min 0 min 120 W/m 4,2 km/h (1 Bft) 95,74 %
05.08.2017 21:14 17,6 C 16,7 C 15,6 C 86 % 0 lf 1016,7 hPa 0,0 l/m 0 min 0 min 7 W/m 6,3 km/h (2 Bft) 97,87 %
05.08.2017 21:16 17,5 C 16,7 C 15,6 C 86 % 0 lf 1016,8 hPa 0,0 l/m 0 min 0 min 7 W/m 6,3 km/h (2 Bft) 97,87 %
05.08.2017 21:18 17,5 C 16,7 C 15,6 C 86 % 0 lf 1016,7 hPa 0,0 l/m 0 min 0 min 5 W/m 6,3 km/h (2 Bft) 97,87 %
05.08.2017 21:20 17,5 C 16,7 C 15,6 C 86 % 0 lf 1016,8 hPa 0,0 l/m 0 min 0 min 5 W/m 4,2 km/h (1 Bft) 95,74 %
05.08.2017 21:22 17,4 C 16,7 C 15,6 C 86 % 0 lf 1016,8 hPa 0,0 l/m 0 min 0 min 5 W/m 4,2 km/h (1 Bft) 97,83 %
05.08.2017 21:24 17,4 C 16,1 C 15,6 C 86 % 0 lf 1016,9 hPa 0,0 l/m 0 min 0 min 5 W/m 4,2 km/h (1 Bft) 95,74 %
05.08.2017 21:26 17,4 C 16,1 C 15,6 C 86 % 0 lf 1016,9 hPa 0,0 l/m 0 min 0 min 5 W/m 2,1 km/h (1 Bft) 97,87 %
05.08.2017 21:28 17,4 C 16,1 C 15,6 C 86 % 0 lf 1017,0 hPa 0,0 l/m 0 min 0 min 5 W/m 2,1 km/h (1 Bft) 97,87 %
05.08.2017 21:30 17,4 C 16,1 C 15,6 C 86 % 0 lf 1017,0 hPa 0,0 l/m 0 min 0 min 5 W/m 2,1 km/h (1 Bft) 95,74 %
05.08.2017 21:32 17,4 C 16,1 C 15,0 C 86 % 0 lf 1017,0 hPa 0,0 l/m 0 min 0 min 5 W/m 2,1 km/h (1 Bft) 97,83 %
05.08.2017 21:34 17,3 C 16,1 C 15,0 C 86 % 0 lf 1017,1 hPa 0,0 l/m 0 min 0 min 5 W/m 4,2 km/h (1 Bft) 97,87 %
05.08.2017 21:36 17,3 C 15,6 C 15,0 C 86 % 0 lf 1017,1 hPa 0,0 l/m 0 min 0 min 5 W/m 6,3 km/h (2 Bft) 91,49 %
05.08.2017 21:38 17,3 C 15,6 C 15,0 C 87 % 0 lf 1017,1 hPa 0,0 l/m 0 min 0 min 5 W/m 2,1 km/h (1 Bft) 97,87 %
05.08.2017 21:40 17,3 C 15,6 C 14,4 C 87 % 0 lf 1017,1 hPa 0,0 l/m 0 min 0 min 5 W/m 4,2 km/h (1 Bft) 95,74 %
05.08.2017 21:42 17,3 C 15,6 C 14,4 C 87 % 0 lf 1017,2 hPa 0,0 l/m 0 min 0 min 5 W/m 2,1 km/h (1 Bft) 97,87 %
05.08.2017 21:44 17,2 C 15,6 C 14,4 C 87 % 0 lf 1017,1 hPa 0,0 l/m 0 min 0 min 5 W/m 4,2 km/h (1 Bft) 97,83 %
05.08.2017 21:46 17,2 C 15,6 C 14,4 C 87 % 0 lf 1017,1 hPa 0,0 l/m 0 min 0 min 5 W/m 4,2 km/h (1 Bft) 97,87 %
05.08.2017 21:48 17,2 C 15,6 C 14,4 C 87 % 0 lf 1017,1 hPa 0,0 l/m 0 min 0 min 5 W/m 4,2 km/h (1 Bft) 95,74 %
05.08.2017 21:50 17,2 C 15,6 C 14,4 C 87 % 0 lf 1017,2 hPa 0,0 l/m 0 min 0 min 5 W/m 6,3 km/h (2 Bft) 95,74 %
05.08.2017 21:52 17,1 C 15,6 C 14,4 C 87 % 0 lf 1017,2 hPa 0,0 l/m 0 min 0 min 5 W/m 6,3 km/h (2 Bft) 95,74 %
05.08.2017 21:54 17,1 C 15,6 C 14,4 C 87 % 0 lf 1017,2 hPa 0,0 l/m 0 min 0 min 5 W/m 4,2 km/h (1 Bft) 97,87 %
05.08.2017 21:56 17,1 C 15,6 C 14,4 C 87 % 0 lf 1017,3 hPa 0,0 l/m 0 min 0 min 5 W/m 4,2 km/h (1 Bft) 95,65 %
05.08.2017 21:58 17,1 C 15,6 C 15,0 C 87 % 0 lf 1017,3 hPa 0,0 l/m 0 min 0 min 5 W/m 8,4 km/h (2 Bft) 97,87 %
05.08.2017 22:00 17,0 C 15,6 C 15,0 C 88 % 0 lf 1017,3 hPa 0,0 l/m 0 min 0 min 5 W/m 8,4 km/h (2 Bft) 95,74 %
05.08.2017 22:02 17,0 C 15,6 C 15,0 C 88 % 0 lf 1017,3 hPa 0,0 l/m 0 min 0 min 5 W/m 8,4 km/h (2 Bft) 95,74 %
05.08.2017 22:04 16,9 C 15,6 C 14,4 C 88 % 0 lf 1017,3 hPa 0,0 l/m 0 min 0 min 5 W/m 6,3 km/h (2 Bft) 97,87 %
05.08.2017 22:06 16,9 C 15,6 C 14,4 C 88 % 0 lf 1017,3 hPa 0,0 l/m 0 min 0 min 5 W/m 2,1 km/h (1 Bft) 95,74 %
05.08.2017 22:08 16,9 C 15,6 C 14,4 C 88 % 0 lf 1017,3 hPa 0,0 l/m 0 min 0 min 5 W/m 4,2 km/h (1 Bft) 95,65 %
05.08.2017 22:10 16,8 C 15,6 C 14,4 C 88 % 0 lf 1017,3 hPa 0,0 l/m 0 min 0 min 5 W/m 2,1 km/h (1 Bft) 97,87 %
05.08.2017 22:12 16,8 C 15,6 C 14,4 C 88 % 0 lf 1017,4 hPa 0,0 l/m 0 min 0 min 5 W/m 4,2 km/h (1 Bft) 97,87 %
05.08.2017 22:14 16,8 C 15,6 C 14,4 C 88 % 0 lf 1017,4 hPa 0,0 l/m 0 min 0 min 5 W/m 0,0 km/h (0 Bft) 95,74 %
05.08.2017 22:16 16,8 C 15,6 C 14,4 C 89 % 0 lf 1017,4 hPa 0,0 l/m 0 min 0 min 5 W/m 0,0 km/h (0 Bft) 97,87 %
05.08.2017 22:18 16,7 C 15,6 C 14,4 C 89 % 0 lf 1017,4 hPa 0,0 l/m 0 min 0 min 5 W/m 6,3 km/h (2 Bft) 95,74 %
05.08.2017 22:20 16,7 C 15,6 C 14,4 C 89 % 0 lf 1017,5 hPa 0,0 l/m 0 min 0 min 5 W/m 6,3 km/h (2 Bft) 97,83 %
05.08.2017 22:22 16,7 C 15,6 C 15,0 C 89 % 0 lf 1017,5 hPa 0,0 l/m 0 min 0 min 5 W/m 8,4 km/h (2 Bft) 95,74 %
05.08.2017 22:24 16,7 C 15,6 C 15,0 C 89 % 0 lf 1017,5 hPa 0,0 l/m 0 min 0 min 5 W/m 6,3 km/h (2 Bft) 100,00 %
05.08.2017 22:26 16,7 C 15,6 C 15,0 C 89 % 0 lf 1017,6 hPa 0,0 l/m 0 min 0 min 5 W/m 4,2 km/h (1 Bft) 97,87 %
05.08.2017 22:28 16,6 C 15,6 C 15,0 C 89 % 0 lf 1017,6 hPa 0,0 l/m 0 min 0 min 5 W/m 6,3 km/h (2 Bft) 100,00 %
05.08.2017 22:30 16,6 C 15,6 C 15,0 C 89 % 1 lf 1017,6 hPa 0,0 l/m 0 min 0 min 5 W/m 6,3 km/h (2 Bft) 100,00 %
05.08.2017 22:32 16,6 C 15,6 C 15,0 C 89 % 1 lf 1017,6 hPa 0,0 l/m 0 min 0 min 5 W/m 4,2 km/h (1 Bft) 100,00 %
05.08.2017 22:34 16,6 C 15,6 C 15,0 C 90 % 1 lf 1017,6 hPa 0,0 l/m 0 min 0 min 5 W/m 2,1 km/h (1 Bft) 100,00 %
05.08.2017 22:36 16,6 C 15,6 C 15,0 C 89 % 1 lf 1017,7 hPa 0,0 l/m 0 min 0 min 5 W/m 12,6 km/h (3 Bft) 95,74 %
05.08.2017 22:38 16,6 C 15,6 C 15,0 C 90 % 1 lf 1017,6 hPa 0,0 l/m 0 min 0 min 5 W/m 8,4 km/h (2 Bft) 100,00 %
05.08.2017 22:40 16,6 C 15,6 C 15,0 C 90 % 3 lf 1017,6 hPa 0,0 l/m 0 min 0 min 5 W/m 6,3 km/h (2 Bft) 97,87 %
05.08.2017 22:42 16,5 C 15,6 C 15,0 C 90 % 3 lf 1017,6 hPa 0,0 l/m 0 min 2 min 5 W/m 6,3 km/h (2 Bft) 93,48 %
05.08.2017 22:44 16,5 C 15,6 C 15,0 C 90 % 3 lf 1017,7 hPa 0,0 l/m 0 min 0 min 5 W/m 8,4 km/h (2 Bft) 97,87 %
05.08.2017 22:46 16,5 C 15,6 C 15,0 C 90 % 4 lf 1017,7 hPa 0,0 l/m 0 min 2 min 5 W/m 12,6 km/h (3 Bft) 91,49 %
05.08.2017 22:48 16,5 C 15,6 C 15,0 C 90 % 4 lf 1017,6 hPa 0,0 l/m 0 min 0 min 5 W/m 12,6 km/h (3 Bft) 97,87 %
05.08.2017 22:50 16,5 C 15,6 C 14,4 C 90 % 6 lf 1017,7 hPa 0,0 l/m 0 min 2 min 5 W/m 8,4 km/h (2 Bft) 97,87 %
05.08.2017 22:52 16,5 C 15,6 C 14,4 C 91 % 7 lf 1017,7 hPa 0,0 l/m 0 min 2 min 5 W/m 10,5 km/h (2 Bft) 91,49 %
05.08.2017 22:54 16,5 C 15,6 C 14,4 C 91 % 6 lf 1017,7 hPa 0,0 l/m 0 min 2 min 5 W/m 6,3 km/h (2 Bft) 95,74 %
05.08.2017 22:56 16,5 C 15,6 C 14,4 C 91 % 7 lf 1017,7 hPa 0,0 l/m 0 min 2 min 5 W/m 4,2 km/h (1 Bft) 97,83 %
05.08.2017 22:58 16,4 C 15,6 C 14,4 C 91 % 8 lf 1017,7 hPa 0,0 l/m 0 min 2 min 5 W/m 8,4 km/h (2 Bft) 95,74 %
05.08.2017 23:00 16,4 C 15,6 C 14,4 C 91 % 9 lf 1017,6 hPa 0,0 l/m 0 min 0 min 5 W/m 8,4 km/h (2 Bft) 95,74 %
05.08.2017 23:02 16,4 C 15,6 C 14,4 C 91 % 9 lf 1017,6 hPa 0,0 l/m 0 min 2 min 5 W/m 6,3 km/h (2 Bft) 97,87 %
05.08.2017 23:04 16,4 C 15,6 C 14,4 C 91 % 8 lf 1017,6 hPa 0,0 l/m 0 min 0 min 5 W/m 6,3 km/h (2 Bft) 97,87 %
05.08.2017 23:06 16,4 C 15,6 C 14,4 C 91 % 7 lf 1017,7 hPa 0,0 l/m 0 min 0 min 5 W/m 6,3 km/h (2 Bft) 95,65 %
05.08.2017 23:08 16,4 C 15,6 C 14,4 C 91 % 6 lf 1017,7 hPa 0,0 l/m 0 min 0 min 5 W/m 6,3 km/h (2 Bft) 95,74 %
05.08.2017 23:10 16,4 C 15,6 C 14,4 C 91 % 5 lf 1017,6 hPa 0,0 l/m 0 min 0 min 5 W/m 4,2 km/h (1 Bft) 97,87 %
05.08.2017 23:12 16,4 C 15,6 C 14,4 C 91 % 4 lf 1017,6 hPa 0,0 l/m 0 min 0 min 5 W/m 2,1 km/h (1 Bft) 95,74 %
05.08.2017 23:14 16,4 C 15,6 C 14,4 C 91 % 4 lf 1017,5 hPa 0,0 l/m 0 min 0 min 5 W/m 2,1 km/h (1 Bft) 97,87 %
05.08.2017 23:16 16,3 C 15,6 C 14,4 C 91 % 3 lf 1017,5 hPa 0,0 l/m 0 min 0 min 5 W/m 2,1 km/h (1 Bft) 97,87 %
05.08.2017 23:18 16,3 C 15,6 C 14,4 C 91 % 3 lf 1017,7 hPa 0,0 l/m 0 min 0 min 5 W/m 2,1 km/h (1 Bft) 97,83 %
05.08.2017 23:20 16,3 C 15,6 C 14,4 C 91 % 3 lf 1017,7 hPa 0,0 l/m 0 min 0 min 5 W/m 0,0 km/h (0 Bft) 100,00 %
05.08.2017 23:22 16,3 C 15,6 C 14,4 C 91 % 2 lf 1017,8 hPa 0,0 l/m 0 min 0 min 0 W/m 0,0 km/h (0 Bft) 97,87 %
05.08.2017 23:24 16,3 C 15,6 C 14,4 C 91 % 2 lf 1017,8 hPa 0,0 l/m 0 min 0 min 0 W/m 0,0 km/h (0 Bft) 95,74 %
05.08.2017 23:26 16,3 C 15,6 C 14,4 C 91 % 2 lf 1017,8 hPa 0,0 l/m 0 min 0 min 0 W/m 0,0 km/h (0 Bft) 97,87 %
05.08.2017 23:28 16,3 C 15,6 C 14,4 C 91 % 1 lf 1017,8 hPa 0,0 l/m 0 min 0 min 0 W/m 0,0 km/h (0 Bft) 95,74 %
05.08.2017 23:30 16,3 C 15,6 C 14,4 C 91 % 1 lf 1017,9 hPa 0,0 l/m 0 min 0 min 0 W/m 4,2 km/h (1 Bft) 95,65 %
05.08.2017 23:32 16,3 C 15,6 C 14,4 C 92 % 1 lf 1017,9 hPa 0,0 l/m 0 min 0 min 5 W/m 6,3 km/h (2 Bft) 100,00 %
05.08.2017 23:34 16,2 C 15,6 C 14,4 C 92 % 1 lf 1017,9 hPa 0,0 l/m 0 min 0 min 5 W/m 6,3 km/h (2 Bft) 94,34 %
05.08.2017 23:36 16,2 C 15,6 C 14,4 C 92 % 1 lf 1018,0 hPa 0,0 l/m 0 min 0 min 5 W/m 6,3 km/h (2 Bft) 97,87 %
05.08.2017 23:38 16,2 C 15,0 C 14,4 C 92 % 1 lf 1018,1 hPa 0,0 l/m 0 min 0 min 5 W/m 6,3 km/h (2 Bft) 95,74 %
05.08.2017 23:40 16,2 C 15,6 C 14,4 C 92 % 1 lf 1018,1 hPa 0,0 l/m 0 min 0 min 5 W/m 4,2 km/h (1 Bft) 93,62 %
05.08.2017 23:42 16,2 C 15,0 C 14,4 C 92 % 1 lf 1018,1 hPa 0,0 l/m 0 min 0 min 5 W/m 8,4 km/h (2 Bft) 97,83 %
05.08.2017 23:44 16,2 C 15,0 C 14,4 C 92 % 1 lf 1018,1 hPa 0,0 l/m 0 min 0 min 5 W/m 6,3 km/h (2 Bft) 91,49 %
05.08.2017 23:46 16,1 C 15,0 C 14,4 C 92 % 1 lf 1018,1 hPa 0,0 l/m 0 min 0 min 5 W/m 8,4 km/h (2 Bft) 97,87 %
05.08.2017 23:48 16,1 C 15,0 C 13,9 C 92 % 1 lf 1018,1 hPa 0,0 l/m 0 min 0 min 5 W/m 6,3 km/h (2 Bft) 95,74 %
05.08.2017 23:50 16,1 C 15,0 C 13,9 C 92 % 1 lf 1018,1 hPa 0,0 l/m 0 min 0 min 5 W/m 6,3 km/h (2 Bft) 95,74 %
05.08.2017 23:52 16,0 C 15,0 C 13,9 C 92 % 1 lf 1018,1 hPa 0,0 l/m 0 min 0 min 5 W/m 8,4 km/h (2 Bft) 95,74 %
05.08.2017 23:54 16,0 C 15,0 C 13,9 C 92 % 1 lf 1018,1 hPa 0,0 l/m 0 min 0 min 5 W/m 6,3 km/h (2 Bft) 95,65 %
05.08.2017 23:56 15,9 C 15,0 C 13,9 C 91 % 1 lf 1018,1 hPa 0,0 l/m 0 min 0 min 0 W/m 8,4 km/h (2 Bft) 95,74 %
05.08.2017 23:58 15,9 C 15,0 C 13,9 C 91 % 1 lf 1018,1 hPa 0,0 l/m 0 min 0 min 0 W/m 4,2 km/h (1 Bft) 93,62 %
_ Min-Zeit 11:30 01:58 01:20 15:54 00:00 07:12 - - - - 00:46 07:52
Minimum _ 15,1 C 13,9 C 12,8 C 74 % 0 lf 1012,0 hPa - - - - 0,0 km/h (0 Bft) 87,23 %
_ Max-Zeit 15:52 14:38 15:46 08:42 03:36 23:38 07:48 12:26 04:05 13:20 16:08 00:26
Maximum _ 21,3 C 29,4 C 28,9 C 97 % 15 lf 1018,1 hPa 0,4 l/m 2 min 5 min 1107 W/m 43,9 km/h
W-NW (6 Bft)
100,00 %
Durchschnitt _ 16,9 C 17,2 C 15,9 C 89 % 6 lf 1014,0 hPa #15,0 l/m #3:56 h #6:10 h 188 W/m 8,4 km/h (2 Bft) 96,54 %
© 2017 W. Hausmann